Time,TemperatureF,DewpointF,PressureIn,WindDirection,WindDirectionDegrees,WindSpeedMPH,WindSpeedGustMPH,Humidity,HourlyPrecipIn,Conditions,Clouds,dailyrainin,SoftwareType,DateUTC
2013-04-11 00:00:00,70.5,61.0,29.90,SSW,196,2.0,6.0,72,0.00,,,0.00,Wunderground v.1.15,2013-04-11 04:00:00,
2013-04-11 00:04:00,70.3,60.8,29.90,South,180,2.0,3.0,72,0.00,,,0.00,Wunderground v.1.15,2013-04-11 04:04:00,
2013-04-11 00:05:00,70.3,60.8,29.90,SSW,193,2.0,3.0,72,0.00,,,0.00,Wunderground v.1.15,2013-04-11 04:05:00,
2013-04-11 00:10:00,70.2,60.7,29.90,SSW,200,2.0,2.0,72,0.00,,,0.00,Wunderground v.1.15,2013-04-11 04:10:00,
2013-04-11 00:14:00,70.1,60.7,29.90,South,169,3.0,3.0,72,0.00,,,0.00,Wunderground v.1.15,2013-04-11 04:14:00,
2013-04-11 00:15:00,70.1,60.7,29.90,SSW,205,5.0,5.0,72,0.00,,,0.00,Wunderground v.1.15,2013-04-11 04:15:00,
2013-04-11 00:18:00,70.1,60.7,29.90,SSE,149,1.0,5.0,72,0.00,,,0.00,Wunderground v.1.15,2013-04-11 04:18:00,
2013-04-11 00:21:00,70.0,60.6,29.90,WSW,245,2.0,3.0,72,0.00,,,0.00,Wunderground v.1.15,2013-04-11 04:21:00,
2013-04-11 00:23:00,69.9,60.5,29.90,SSW,205,1.0,3.0,72,0.00,,,0.00,Wunderground v.1.15,2013-04-11 04:23:00,
2013-04-11 00:24:00,69.9,60.5,29.90,South,191,3.0,3.0,72,0.00,,,0.00,Wunderground v.1.15,2013-04-11 04:24:00,
2013-04-11 00:26:00,69.8,60.4,29.90,SW,233,3.0,3.0,72,0.00,,,0.00,Wunderground v.1.15,2013-04-11 04:26:00,
2013-04-11 00:28:00,69.8,60.4,29.90,SE,124,4.0,4.0,72,0.00,,,0.00,Wunderground v.1.15,2013-04-11 04:28:00,
2013-04-11 00:32:00,69.6,60.2,29.90,South,188,1.0,2.0,72,0.00,,,0.00,Wunderground v.1.15,2013-04-11 04:32:00,
2013-04-11 00:34:00,69.6,60.2,29.90,SSW,204,3.0,7.0,72,0.00,,,0.00,Wunderground v.1.15,2013-04-11 04:34:00,
2013-04-11 00:37:00,69.6,60.2,29.91,SSW,205,2.0,7.0,72,0.00,,,0.00,Wunderground v.1.15,2013-04-11 04:37:00,
2013-04-11 00:39:00,69.5,60.1,29.90,SW,214,1.0,7.0,72,0.00,,,0.00,Wunderground v.1.15,2013-04-11 04:39:00,
2013-04-11 00:43:00,69.4,60.0,29.90,SSW,201,3.0,3.0,72,0.00,,,0.00,Wunderground v.1.15,2013-04-11 04:43:00,
2013-04-11 00:44:00,69.4,60.0,29.91,South,173,2.0,3.0,72,0.00,,,0.00,Wunderground v.1.15,2013-04-11 04:44:00,
2013-04-11 00:46:00,69.4,60.0,29.91,SSW,211,1.0,3.0,72,0.00,,,0.00,Wunderground v.1.15,2013-04-11 04:46:00,
2013-04-11 00:51:00,69.3,59.9,29.91,SW,217,5.0,6.0,72,0.00,,,0.00,Wunderground v.1.15,2013-04-11 04:51:00,
2013-04-11 00:53:00,69.3,59.9,29.91,SSW,205,2.0,6.0,72,0.00,,,0.00,Wunderground v.1.15,2013-04-11 04:53:00,
2013-04-11 00:54:00,69.2,59.8,29.91,SSW,205,2.0,6.0,72,0.00,,,0.00,Wunderground v.1.15,2013-04-11 04:54:00,
2013-04-11 00:56:00,69.2,59.8,29.91,South,187,1.0,6.0,72,0.00,,,0.00,Wunderground v.1.15,2013-04-11 04:56:00,
2013-04-11 00:58:00,69.1,59.7,29.91,SSW,193,0.0,6.0,72,0.00,,,0.00,Wunderground v.1.15,2013-04-11 04:58:00,
2013-04-11 01:00:00,69.0,59.6,29.91,SSW,197,2.0,3.0,72,0.00,,,0.00,Wunderground v.1.15,2013-04-11 05:00:00,
2013-04-11 01:04:00,69.0,59.6,29.91,SSW,208,2.0,3.0,72,0.00,,,0.00,Wunderground v.1.15,2013-04-11 05:04:00,
2013-04-11 01:06:00,68.9,59.5,29.91,SSW,197,2.0,3.0,72,0.00,,,0.00,Wunderground v.1.15,2013-04-11 05:06:00,
2013-04-11 01:07:00,68.9,59.5,29.91,SW,226,2.0,3.0,72,0.00,,,0.00,Wunderground v.1.15,2013-04-11 05:07:00,
2013-04-11 01:09:00,68.8,59.4,29.91,SSW,208,1.0,3.0,72,0.00,,,0.00,Wunderground v.1.15,2013-04-11 05:09:00,
2013-04-11 01:11:00,68.7,59.3,29.91,SSW,207,2.0,2.0,72,0.00,,,0.00,Wunderground v.1.15,2013-04-11 05:11:00,
2013-04-11 01:13:00,68.6,59.2,29.91,South,191,3.0,3.0,72,0.00,,,0.00,Wunderground v.1.15,2013-04-11 05:13:00,
2013-04-11 01:15:00,68.5,59.1,29.91,SSW,200,2.0,3.0,72,0.00,,,0.00,Wunderground v.1.15,2013-04-11 05:15:00,
2013-04-11 01:18:00,68.4,59.0,29.91,SSW,195,1.0,3.0,72,0.00,,,0.00,Wunderground v.1.15,2013-04-11 05:18:00,
2013-04-11 01:20:00,68.4,59.0,29.91,SSW,207,3.0,3.0,72,0.00,,,0.00,Wunderground v.1.15,2013-04-11 05:20:00,
2013-04-11 01:21:00,68.4,59.0,29.91,SSW,203,2.0,3.0,72,0.00,,,0.00,Wunderground v.1.15,2013-04-11 05:21:00,
2013-04-11 01:23:00,68.4,59.0,29.91,SSW,200,2.0,3.0,72,0.00,,,0.00,Wunderground v.1.15,2013-04-11 05:23:00,
2013-04-11 01:26:00,68.3,59.3,29.91,SSW,207,2.0,3.0,73,0.00,,,0.00,Wunderground v.1.15,2013-04-11 05:26:00,
2013-04-11 01:29:00,68.2,59.2,29.91,SSW,200,3.0,3.0,73,0.00,,,0.00,Wunderground v.1.15,2013-04-11 05:29:00,
2013-04-11 01:32:00,68.1,59.1,29.91,SSW,211,3.0,3.0,73,0.00,,,0.00,Wunderground v.1.15,2013-04-11 05:32:00,
2013-04-11 01:33:00,68.1,59.1,29.91,SSW,211,1.0,3.0,73,0.00,,,0.00,Wunderground v.1.15,2013-04-11 05:33:00,
2013-04-11 01:35:00,68.0,59.0,29.91,SSW,210,3.0,3.0,73,0.00,,,0.00,Wunderground v.1.15,2013-04-11 05:35:00,
2013-04-11 01:38:00,67.9,58.9,29.91,SSW,204,2.0,3.0,73,0.00,,,0.00,Wunderground v.1.15,2013-04-11 05:38:00,
2013-04-11 01:39:00,67.8,58.8,29.91,SW,222,3.0,3.0,73,0.00,,,0.00,Wunderground v.1.15,2013-04-11 05:39:00,
2013-04-11 01:41:00,67.8,58.8,29.91,SSW,211,2.0,4.0,73,0.00,,,0.00,Wunderground v.1.15,2013-04-11 05:41:00,
2013-04-11 01:42:00,67.8,58.8,29.91,SSW,205,2.0,4.0,73,0.00,,,0.00,Wunderground v.1.15,2013-04-11 05:42:00,
2013-04-11 01:43:00,67.7,58.7,29.91,SSW,207,1.0,4.0,73,0.00,,,0.00,Wunderground v.1.15,2013-04-11 05:43:00,
2013-04-11 01:46:00,67.7,59.1,29.91,SSW,200,2.0,4.0,74,0.00,,,0.00,Wunderground v.1.15,2013-04-11 05:46:00,
2013-04-11 01:47:00,67.6,59.0,29.91,SSW,195,0.0,4.0,74,0.00,,,0.00,Wunderground v.1.15,2013-04-11 05:47:00,
2013-04-11 01:48:00,67.6,59.0,29.91,SSW,208,1.0,4.0,74,0.00,,,0.00,Wunderground v.1.15,2013-04-11 05:48:00,
2013-04-11 01:51:00,67.5,58.9,29.92,SSW,200,1.0,2.0,74,0.00,,,0.00,Wunderground v.1.15,2013-04-11 05:51:00,
2013-04-11 01:52:00,67.5,58.9,29.91,SSW,210,2.0,2.0,74,0.00,,,0.00,Wunderground v.1.15,2013-04-11 05:52:00,
2013-04-11 01:53:00,67.4,58.8,29.91,SSE,163,1.0,2.0,74,0.00,,,0.00,Wunderground v.1.15,2013-04-11 05:53:00,
2013-04-11 01:56:00,67.3,58.7,29.91,South,183,1.0,2.0,74,0.00,,,0.00,Wunderground v.1.15,2013-04-11 05:56:00,
2013-04-11 01:57:00,67.3,58.7,29.92,SSW,203,2.0,2.0,74,0.00,,,0.00,Wunderground v.1.15,2013-04-11 05:57:00,
2013-04-11 01:59:00,67.2,58.6,29.91,SSW,200,2.0,3.0,74,0.00,,,0.00,Wunderground v.1.15,2013-04-11 05:59:00,
2013-04-11 02:01:00,67.1,58.9,29.91,SSW,204,1.0,2.0,75,0.00,,,0.00,Wunderground v.1.15,2013-04-11 06:01:00,
2013-04-11 02:02:00,67.0,58.8,29.91,SSW,203,1.0,2.0,75,0.00,,,0.00,Wunderground v.1.15,2013-04-11 06:02:00,
2013-04-11 02:04:00,66.9,58.7,29.91,SW,218,3.0,3.0,75,0.00,,,0.00,Wunderground v.1.15,2013-04-11 06:04:00,
2013-04-11 02:07:00,66.9,58.7,29.91,SSW,208,2.0,5.0,75,0.00,,,0.00,Wunderground v.1.15,2013-04-11 06:07:00,
2013-04-11 02:09:00,66.8,58.6,29.91,South,169,1.0,5.0,75,0.00,,,0.00,Wunderground v.1.15,2013-04-11 06:09:00,
2013-04-11 02:12:00,66.7,58.5,29.91,SSW,197,2.0,4.0,75,0.00,,,0.00,Wunderground v.1.15,2013-04-11 06:12:00,
2013-04-11 02:14:00,66.6,58.8,29.91,SSW,194,3.0,5.0,76,0.00,,,0.00,Wunderground v.1.15,2013-04-11 06:14:00,
2013-04-11 02:17:00,66.6,58.8,29.90,SSW,204,1.0,6.0,76,0.00,,,0.00,Wunderground v.1.15,2013-04-11 06:17:00,
2013-04-11 02:18:00,66.6,58.8,29.91,SSW,195,1.0,6.0,76,0.00,,,0.00,Wunderground v.1.15,2013-04-11 06:18:00,
2013-04-11 02:20:00,66.5,58.7,29.90,South,181,4.0,6.0,76,0.00,,,0.00,Wunderground v.1.15,2013-04-11 06:20:00,
2013-04-11 02:22:00,66.5,58.7,29.91,SSW,211,2.0,6.0,76,0.00,,,0.00,Wunderground v.1.15,2013-04-11 06:22:00,
2013-04-11 02:23:00,66.5,58.7,29.91,South,190,2.0,6.0,76,0.00,,,0.00,Wunderground v.1.15,2013-04-11 06:23:00,
2013-04-11 02:25:00,66.4,58.6,29.91,SSW,200,2.0,6.0,76,0.00,,,0.00,Wunderground v.1.15,2013-04-11 06:25:00,
2013-04-11 02:28:00,66.3,58.5,29.91,SSW,194,2.0,6.0,76,0.00,,,0.00,Wunderground v.1.15,2013-04-11 06:28:00,
2013-04-11 02:30:00,66.2,58.4,29.91,SSW,207,3.0,3.0,76,0.00,,,0.00,Wunderground v.1.15,2013-04-11 06:30:00,
2013-04-11 02:33:00,66.1,58.7,29.91,SSW,204,3.0,3.0,77,0.00,,,0.00,Wunderground v.1.15,2013-04-11 06:33:00,
2013-04-11 02:35:00,66.0,58.6,29.90,SSW,203,2.0,5.0,77,0.00,,,0.00,Wunderground v.1.15,2013-04-11 06:35:00,
2013-04-11 02:38:00,65.9,58.5,29.90,SSW,211,1.0,5.0,77,0.00,,,0.00,Wunderground v.1.15,2013-04-11 06:38:00,
2013-04-11 02:41:00,65.9,58.5,29.91,South,191,1.0,2.0,77,0.00,,,0.00,Wunderground v.1.15,2013-04-11 06:41:00,
2013-04-11 02:43:00,65.8,58.4,29.90,SSW,204,1.0,3.0,77,0.00,,,0.00,Wunderground v.1.15,2013-04-11 06:43:00,
2013-04-11 02:44:00,65.7,58.3,29.91,SSW,200,2.0,3.0,77,0.00,,,0.00,Wunderground v.1.15,2013-04-11 06:44:00,
2013-04-11 02:46:00,65.7,58.7,29.91,SSW,193,2.0,6.0,78,0.00,,,0.00,Wunderground v.1.15,2013-04-11 06:46:00,
2013-04-11 02:48:00,65.7,58.7,29.90,SSW,212,3.0,6.0,78,0.00,,,0.00,Wunderground v.1.15,2013-04-11 06:48:00,
2013-04-11 02:49:00,65.7,58.7,29.90,SSW,210,3.0,6.0,78,0.00,,,0.00,Wunderground v.1.15,2013-04-11 06:49:00,
2013-04-11 02:51:00,65.6,58.6,29.90,SW,226,2.0,4.0,78,0.00,,,0.00,Wunderground v.1.15,2013-04-11 06:51:00,
2013-04-11 02:53:00,65.6,58.6,29.90,South,188,1.0,4.0,78,0.00,,,0.00,Wunderground v.1.15,2013-04-11 06:53:00,
2013-04-11 02:54:00,65.5,58.5,29.90,SSW,200,3.0,4.0,78,0.00,,,0.00,Wunderground v.1.15,2013-04-11 06:54:00,
2013-04-11 02:57:00,65.4,58.4,29.90,SSW,204,2.0,4.0,78,0.00,,,0.00,Wunderground v.1.15,2013-04-11 06:57:00,
2013-04-11 02:59:00,65.4,58.4,29.90,SSW,204,1.0,4.0,78,0.00,,,0.00,Wunderground v.1.15,2013-04-11 06:59:00,
2013-04-11 03:02:00,65.3,58.6,29.90,SW,214,1.0,3.0,79,0.00,,,0.00,Wunderground v.1.15,2013-04-11 07:02:00,
2013-04-11 03:03:00,65.2,58.5,29.90,SSW,194,2.0,3.0,79,0.00,,,0.00,Wunderground v.1.15,2013-04-11 07:03:00,
2013-04-11 03:04:00,65.2,58.5,29.90,South,187,1.0,3.0,79,0.00,,,0.00,Wunderground v.1.15,2013-04-11 07:04:00,
2013-04-11 03:08:00,65.1,58.4,29.90,SSW,197,1.0,5.0,79,0.00,,,0.00,Wunderground v.1.15,2013-04-11 07:08:00,
2013-04-11 03:09:00,65.1,58.4,29.90,South,187,1.0,5.0,79,0.00,,,0.00,Wunderground v.1.15,2013-04-11 07:09:00,
2013-04-11 03:10:00,65.1,58.4,29.90,South,188,0.0,2.0,79,0.00,,,0.00,Wunderground v.1.15,2013-04-11 07:10:00,
2013-04-11 03:13:00,65.0,58.7,29.90,South,189,1.0,6.0,80,0.00,,,0.00,Wunderground v.1.15,2013-04-11 07:13:00,
2013-04-11 03:14:00,65.0,58.7,29.90,SSW,210,2.0,6.0,80,0.00,,,0.00,Wunderground v.1.15,2013-04-11 07:14:00,
2013-04-11 03:15:00,65.0,58.7,29.90,SSW,197,1.0,6.0,80,0.00,,,0.00,Wunderground v.1.15,2013-04-11 07:15:00,
2013-04-11 03:18:00,64.9,58.6,29.89,SSW,209,1.0,6.0,80,0.00,,,0.00,Wunderground v.1.15,2013-04-11 07:18:00,
2013-04-11 03:19:00,64.9,58.6,29.89,SW,215,3.0,6.0,80,0.00,,,0.00,Wunderground v.1.15,2013-04-11 07:19:00,
2013-04-11 03:20:00,64.8,58.5,29.89,SSW,204,3.0,3.0,80,0.00,,,0.00,Wunderground v.1.15,2013-04-11 07:20:00,
2013-04-11 03:23:00,64.8,58.5,29.89,SSW,207,1.0,5.0,80,0.00,,,0.00,Wunderground v.1.15,2013-04-11 07:23:00,
2013-04-11 03:24:00,64.7,58.4,29.89,SW,214,3.0,5.0,80,0.00,,,0.00,Wunderground v.1.15,2013-04-11 07:24:00,
2013-04-11 03:25:00,64.7,58.4,29.89,SSW,203,1.0,5.0,80,0.00,,,0.00,Wunderground v.1.15,2013-04-11 07:25:00,
2013-04-11 03:28:00,64.6,58.6,29.89,SE,146,1.0,5.0,81,0.00,,,0.00,Wunderground v.1.15,2013-04-11 07:28:00,
2013-04-11 03:29:00,64.6,58.6,29.89,SSW,208,4.0,5.0,81,0.00,,,0.00,Wunderground v.1.15,2013-04-11 07:29:00,
2013-04-11 03:30:00,64.6,58.6,29.89,South,179,2.0,3.0,81,0.00,,,0.00,Wunderground v.1.15,2013-04-11 07:30:00,
2013-04-11 03:34:00,64.5,58.5,29.90,SSW,203,3.0,3.0,81,0.00,,,0.00,Wunderground v.1.15,2013-04-11 07:34:00,
2013-04-11 03:35:00,64.5,58.5,29.89,SSW,193,1.0,3.0,81,0.00,,,0.00,Wunderground v.1.15,2013-04-11 07:35:00,
2013-04-11 03:39:00,64.4,58.8,29.90,SSW,193,1.0,6.0,82,0.00,,,0.00,Wunderground v.1.15,2013-04-11 07:39:00,
2013-04-11 03:40:00,64.4,58.8,29.90,SSW,200,2.0,6.0,82,0.00,,,0.00,Wunderground v.1.15,2013-04-11 07:40:00,
2013-04-11 03:44:00,64.3,58.7,29.90,SSW,204,2.0,6.0,82,0.00,,,0.00,Wunderground v.1.15,2013-04-11 07:44:00,
2013-04-11 03:45:00,64.3,58.7,29.90,SSW,206,5.0,6.0,82,0.00,,,0.00,Wunderground v.1.15,2013-04-11 07:45:00,
2013-04-11 03:46:00,64.3,58.7,29.90,SSW,203,2.0,6.0,82,0.00,,,0.00,Wunderground v.1.15,2013-04-11 07:46:00,
2013-04-11 03:49:00,64.2,58.6,29.90,SSW,200,1.0,6.0,82,0.00,,,0.00,Wunderground v.1.15,2013-04-11 07:49:00,
2013-04-11 03:50:00,64.2,58.6,29.90,SSW,200,1.0,2.0,82,0.00,,,0.00,Wunderground v.1.15,2013-04-11 07:50:00,
2013-04-11 03:51:00,64.2,58.6,29.90,SSW,195,1.0,2.0,82,0.00,,,0.00,Wunderground v.1.15,2013-04-11 07:51:00,
2013-04-11 03:54:00,64.1,58.8,29.90,SSW,200,4.0,4.0,83,0.00,,,0.00,Wunderground v.1.15,2013-04-11 07:54:00,
2013-04-11 03:55:00,64.1,58.8,29.90,SSW,204,2.0,4.0,83,0.00,,,0.00,Wunderground v.1.15,2013-04-11 07:55:00,
2013-04-11 03:57:00,64.1,58.8,29.90,SSW,203,1.0,4.0,83,0.00,,,0.00,Wunderground v.1.15,2013-04-11 07:57:00,
2013-04-11 03:59:00,64.0,58.7,29.90,SSW,197,1.0,4.0,83,0.00,,,0.00,Wunderground v.1.15,2013-04-11 07:59:00,
2013-04-11 04:00:00,64.0,58.7,29.90,SSW,195,1.0,2.0,83,0.00,,,0.00,Wunderground v.1.15,2013-04-11 08:00:00,
2013-04-11 04:01:00,63.9,58.6,29.90,SSW,200,2.0,2.0,83,0.00,,,0.00,Wunderground v.1.15,2013-04-11 08:01:00,
2013-04-11 04:02:00,63.9,58.6,29.90,South,184,1.0,2.0,83,0.00,,,0.00,Wunderground v.1.15,2013-04-11 08:02:00,
2013-04-11 04:04:00,63.9,59.0,29.90,SW,215,2.0,4.0,84,0.00,,,0.00,Wunderground v.1.15,2013-04-11 08:04:00,
2013-04-11 04:05:00,63.8,58.9,29.90,SSW,212,2.0,4.0,84,0.00,,,0.00,Wunderground v.1.15,2013-04-11 08:05:00,
2013-04-11 04:06:00,63.8,58.9,29.90,SSW,211,2.0,5.0,84,0.00,,,0.00,Wunderground v.1.15,2013-04-11 08:06:00,
2013-04-11 04:07:00,63.8,58.9,29.90,SSW,195,1.0,5.0,84,0.00,,,0.00,Wunderground v.1.15,2013-04-11 08:07:00,
2013-04-11 04:09:00,63.7,58.8,29.90,SSW,208,1.0,5.0,84,0.00,,,0.00,Wunderground v.1.15,2013-04-11 08:09:00,
2013-04-11 04:10:00,63.7,58.8,29.90,SSW,193,1.0,2.0,84,0.00,,,0.00,Wunderground v.1.15,2013-04-11 08:10:00,
2013-04-11 04:11:00,63.7,58.8,29.90,SSW,195,3.0,4.0,84,0.00,,,0.00,Wunderground v.1.15,2013-04-11 08:11:00,
2013-04-11 04:12:00,63.7,58.8,29.90,SW,214,2.0,4.0,84,0.00,,,0.00,Wunderground v.1.15,2013-04-11 08:12:00,
2013-04-11 04:15:00,63.6,58.7,29.90,South,188,2.0,4.0,84,0.00,,,0.00,Wunderground v.1.15,2013-04-11 08:15:00,
2013-04-11 04:17:00,63.6,59.0,29.90,South,190,1.0,4.0,85,0.00,,,0.00,Wunderground v.1.15,2013-04-11 08:17:00,
2013-04-11 04:20:00,63.5,58.9,29.90,SW,221,3.0,3.0,85,0.00,,,0.00,Wunderground v.1.15,2013-04-11 08:20:00,
2013-04-11 04:22:00,63.5,58.9,29.90,SSW,200,2.0,3.0,85,0.00,,,0.00,Wunderground v.1.15,2013-04-11 08:22:00,
2013-04-11 04:23:00,63.5,58.9,29.90,SW,215,1.0,3.0,85,0.00,,,0.00,Wunderground v.1.15,2013-04-11 08:23:00,
2013-04-11 04:25:00,63.4,58.8,29.90,SSW,208,1.0,3.0,85,0.00,,,0.00,Wunderground v.1.15,2013-04-11 08:25:00,
2013-04-11 04:27:00,63.4,58.8,29.90,SSW,195,1.0,3.0,85,0.00,,,0.00,Wunderground v.1.15,2013-04-11 08:27:00,
2013-04-11 04:28:00,63.3,58.7,29.90,SSW,211,1.0,3.0,85,0.00,,,0.00,Wunderground v.1.15,2013-04-11 08:28:00,
2013-04-11 04:30:00,63.3,59.0,29.90,SSW,200,3.0,4.0,86,0.00,,,0.00,Wunderground v.1.15,2013-04-11 08:30:00,
2013-04-11 04:32:00,63.3,59.0,29.90,SW,218,3.0,4.0,86,0.00,,,0.00,Wunderground v.1.15,2013-04-11 08:32:00,
2013-04-11 04:33:00,63.2,58.9,29.90,ENE,75,2.0,4.0,86,0.00,,,0.00,Wunderground v.1.15,2013-04-11 08:33:00,
2013-04-11 04:35:00,63.2,58.9,29.90,SSW,207,2.0,4.0,86,0.00,,,0.00,Wunderground v.1.15,2013-04-11 08:35:00,
2013-04-11 04:36:00,63.2,58.9,29.90,South,184,2.0,4.0,86,0.00,,,0.00,Wunderground v.1.15,2013-04-11 08:36:00,
2013-04-11 04:37:00,63.2,58.9,29.90,SSW,205,1.0,4.0,86,0.00,,,0.00,Wunderground v.1.15,2013-04-11 08:37:00,
2013-04-11 04:38:00,63.2,58.9,29.90,SSW,195,1.0,4.0,86,0.00,,,0.00,Wunderground v.1.15,2013-04-11 08:38:00,
2013-04-11 04:40:00,63.1,58.8,29.90,SSW,200,1.0,3.0,86,0.00,,,0.00,Wunderground v.1.15,2013-04-11 08:40:00,
2013-04-11 04:41:00,63.1,59.2,29.90,SSW,195,1.0,3.0,87,0.00,,,0.00,Wunderground v.1.15,2013-04-11 08:41:00,
2013-04-11 04:43:00,63.0,58.7,29.90,SSW,200,1.0,3.0,86,0.00,,,0.00,Wunderground v.1.15,2013-04-11 08:43:00,
2013-04-11 04:45:00,63.0,59.1,29.90,SSW,208,1.0,3.0,87,0.00,,,0.00,Wunderground v.1.15,2013-04-11 08:45:00,
2013-04-11 04:46:00,62.9,59.0,29.90,SSW,205,3.0,3.0,87,0.00,,,0.00,Wunderground v.1.15,2013-04-11 08:46:00,
2013-04-11 04:48:00,62.9,59.0,29.90,SSW,208,3.0,4.0,87,0.00,,,0.00,Wunderground v.1.15,2013-04-11 08:48:00,
2013-04-11 04:51:00,62.9,59.0,29.90,SSW,208,1.0,2.0,87,0.00,,,0.00,Wunderground v.1.15,2013-04-11 08:51:00,
2013-04-11 04:52:00,62.9,59.0,29.90,SSW,208,1.0,2.0,87,0.00,,,0.00,Wunderground v.1.15,2013-04-11 08:52:00,
2013-04-11 04:53:00,62.8,58.9,29.90,SSW,203,2.0,3.0,87,0.00,,,0.00,Wunderground v.1.15,2013-04-11 08:53:00,
2013-04-11 04:57:00,62.8,59.2,29.89,SSW,208,1.0,3.0,88,0.00,,,0.00,Wunderground v.1.15,2013-04-11 08:57:00,
2013-04-11 04:58:00,62.7,59.1,29.89,SSW,194,1.0,5.0,88,0.00,,,0.00,Wunderground v.1.15,2013-04-11 08:58:00,
2013-04-11 04:59:00,62.7,59.1,29.89,SSW,203,1.0,5.0,88,0.00,,,0.00,Wunderground v.1.15,2013-04-11 08:59:00,
2013-04-11 05:02:00,62.6,59.0,29.89,SSW,207,0.0,2.0,88,0.00,,,0.00,Wunderground v.1.15,2013-04-11 09:02:00,
2013-04-11 05:03:00,62.5,58.9,29.89,ESE,109,0.0,2.0,88,0.00,,,0.00,Wunderground v.1.15,2013-04-11 09:03:00,
2013-04-11 05:04:00,62.5,58.9,29.89,SSW,195,1.0,2.0,88,0.00,,,0.00,Wunderground v.1.15,2013-04-11 09:04:00,
2013-04-11 05:07:00,62.5,59.2,29.89,SSW,212,1.0,3.0,89,0.00,,,0.00,Wunderground v.1.15,2013-04-11 09:07:00,
2013-04-11 05:09:00,62.5,59.2,29.89,South,187,2.0,3.0,89,0.00,,,0.00,Wunderground v.1.15,2013-04-11 09:09:00,
2013-04-11 05:12:00,62.4,59.1,29.89,SSW,207,1.0,4.0,89,0.00,,,0.00,Wunderground v.1.15,2013-04-11 09:12:00,
2013-04-11 05:13:00,62.4,59.1,29.89,SW,225,2.0,4.0,89,0.00,,,0.00,Wunderground v.1.15,2013-04-11 09:13:00,
2013-04-11 05:14:00,62.4,59.1,29.89,SW,215,3.0,4.0,89,0.00,,,0.00,Wunderground v.1.15,2013-04-11 09:14:00,
2013-04-11 05:15:00,62.4,59.1,29.89,SSW,207,2.0,4.0,89,0.00,,,0.00,Wunderground v.1.15,2013-04-11 09:15:00,
2013-04-11 05:18:00,62.4,59.1,29.89,SSW,212,1.0,4.0,89,0.00,,,0.00,Wunderground v.1.15,2013-04-11 09:18:00,
2013-04-11 05:19:00,62.4,59.1,29.89,South,178,1.0,4.0,89,0.00,,,0.00,Wunderground v.1.15,2013-04-11 09:19:00,
2013-04-11 05:20:00,62.3,59.0,29.89,South,186,1.0,1.0,89,0.00,,,0.00,Wunderground v.1.15,2013-04-11 09:20:00,
2013-04-11 05:23:00,62.3,59.0,29.89,SSW,205,2.0,4.0,89,0.00,,,0.00,Wunderground v.1.15,2013-04-11 09:23:00,
2013-04-11 05:24:00,62.3,59.3,29.89,South,190,1.0,5.0,90,0.00,,,0.00,Wunderground v.1.15,2013-04-11 09:24:00,
2013-04-11 05:25:00,62.3,59.0,29.89,SSW,205,2.0,5.0,89,0.00,,,0.00,Wunderground v.1.15,2013-04-11 09:25:00,
2013-04-11 05:28:00,62.2,59.2,29.90,SSW,204,1.0,5.0,90,0.00,,,0.00,Wunderground v.1.15,2013-04-11 09:28:00,
2013-04-11 05:29:00,62.3,59.3,29.90,SSW,205,3.0,5.0,90,0.00,,,0.00,Wunderground v.1.15,2013-04-11 09:29:00,
2013-04-11 05:30:00,62.2,59.2,29.90,SW,218,4.0,4.0,90,0.00,,,0.00,Wunderground v.1.15,2013-04-11 09:30:00,
2013-04-11 05:33:00,62.2,59.2,29.90,SW,218,2.0,4.0,90,0.00,,,0.00,Wunderground v.1.15,2013-04-11 09:33:00,
2013-04-11 05:34:00,62.2,59.2,29.90,SSW,210,2.0,5.0,90,0.00,,,0.00,Wunderground v.1.15,2013-04-11 09:34:00,
2013-04-11 05:35:00,62.2,59.2,29.90,SSW,203,2.0,5.0,90,0.00,,,0.00,Wunderground v.1.15,2013-04-11 09:35:00,
2013-04-11 05:38:00,62.2,59.2,29.90,South,189,2.0,5.0,90,0.00,,,0.00,Wunderground v.1.15,2013-04-11 09:38:00,
2013-04-11 05:39:00,62.2,59.2,29.90,South,188,1.0,5.0,90,0.00,,,0.00,Wunderground v.1.15,2013-04-11 09:39:00,
2013-04-11 05:40:00,62.2,59.2,29.90,SSW,195,1.0,4.0,90,0.00,,,0.00,Wunderground v.1.15,2013-04-11 09:40:00,
2013-04-11 05:43:00,62.1,59.1,29.90,SW,215,2.0,4.0,90,0.00,,,0.00,Wunderground v.1.15,2013-04-11 09:43:00,
2013-04-11 05:44:00,62.1,59.1,29.90,SW,218,3.0,4.0,90,0.00,,,0.00,Wunderground v.1.15,2013-04-11 09:44:00,
2013-04-11 05:45:00,62.1,59.1,29.90,SSW,203,1.0,4.0,90,0.00,,,0.00,Wunderground v.1.15,2013-04-11 09:45:00,
2013-04-11 05:49:00,62.0,59.3,29.90,SSW,207,1.0,4.0,91,0.00,,,0.00,Wunderground v.1.15,2013-04-11 09:49:00,
2013-04-11 05:50:00,62.0,59.3,29.90,SSW,195,3.0,3.0,91,0.00,,,0.00,Wunderground v.1.15,2013-04-11 09:50:00,
2013-04-11 05:54:00,62.0,59.3,29.90,SSW,197,1.0,3.0,91,0.00,,,0.00,Wunderground v.1.15,2013-04-11 09:54:00,
2013-04-11 05:55:00,62.0,59.3,29.90,SW,214,3.0,3.0,91,0.00,,,0.00,Wunderground v.1.15,2013-04-11 09:55:00,
2013-04-11 05:56:00,61.9,59.2,29.90,SSW,208,1.0,3.0,91,0.00,,,0.00,Wunderground v.1.15,2013-04-11 09:56:00,
2013-04-11 05:59:00,61.9,59.2,29.90,SSW,195,1.0,3.0,91,0.00,,,0.00,Wunderground v.1.15,2013-04-11 09:59:00,
2013-04-11 06:01:00,61.9,59.2,29.90,SE,143,1.0,2.0,91,0.00,,,0.00,Wunderground v.1.15,2013-04-11 10:01:00,
2013-04-11 06:02:00,61.8,59.1,29.90,South,184,2.0,2.0,91,0.00,,,0.00,Wunderground v.1.15,2013-04-11 10:02:00,
2013-04-11 06:04:00,61.8,59.1,29.90,SSW,211,1.0,2.0,91,0.00,,,0.00,Wunderground v.1.15,2013-04-11 10:04:00,
2013-04-11 06:06:00,61.8,59.1,29.90,SSW,200,2.0,4.0,91,0.00,,,0.00,Wunderground v.1.15,2013-04-11 10:06:00,
2013-04-11 06:07:00,61.8,59.5,29.90,South,188,1.0,5.0,92,0.00,,,0.00,Wunderground v.1.15,2013-04-11 10:07:00,
2013-04-11 06:10:00,61.9,59.5,29.90,SSW,203,1.0,5.0,92,0.00,,,0.00,Wunderground v.1.15,2013-04-11 10:10:00,
2013-04-11 06:11:00,61.9,59.5,29.90,SSW,200,1.0,3.0,92,0.00,,,0.00,Wunderground v.1.15,2013-04-11 10:11:00,
2013-04-11 06:12:00,61.8,59.5,29.90,SSW,200,0.0,3.0,92,0.00,,,0.00,Wunderground v.1.15,2013-04-11 10:12:00,
2013-04-11 06:15:00,61.8,59.5,29.90,SSW,208,2.0,3.0,92,0.00,,,0.00,Wunderground v.1.15,2013-04-11 10:15:00,
2013-04-11 06:16:00,61.8,59.5,29.90,SW,215,1.0,3.0,92,0.00,,,0.00,Wunderground v.1.15,2013-04-11 10:16:00,
2013-04-11 06:17:00,61.8,59.5,29.90,SSW,200,2.0,3.0,92,0.00,,,0.00,Wunderground v.1.15,2013-04-11 10:17:00,
2013-04-11 06:20:00,61.7,59.4,29.90,SW,214,2.0,2.0,92,0.00,,,0.00,Wunderground v.1.15,2013-04-11 10:20:00,
2013-04-11 06:21:00,61.7,59.4,29.90,SSW,204,3.0,4.0,92,0.00,,,0.00,Wunderground v.1.15,2013-04-11 10:21:00,
2013-04-11 06:22:00,61.7,59.4,29.90,SSW,204,0.0,4.0,92,0.00,,,0.00,Wunderground v.1.15,2013-04-11 10:22:00,
2013-04-11 06:25:00,61.8,59.5,29.90,SSW,210,0.0,4.0,92,0.00,,,0.00,Wunderground v.1.15,2013-04-11 10:25:00,
2013-04-11 06:27:00,61.8,59.5,29.90,SW,215,3.0,4.0,92,0.00,,,0.00,Wunderground v.1.15,2013-04-11 10:27:00,
2013-04-11 06:30:00,61.8,59.5,29.90,SSW,193,1.0,2.0,92,0.00,,,0.00,Wunderground v.1.15,2013-04-11 10:30:00,
2013-04-11 06:32:00,61.8,59.8,29.90,SSW,205,2.0,3.0,93,0.00,,,0.00,Wunderground v.1.15,2013-04-11 10:32:00,
2013-04-11 06:35:00,61.9,59.9,29.90,SW,218,2.0,4.0,93,0.00,,,0.00,Wunderground v.1.15,2013-04-11 10:35:00,
2013-04-11 06:37:00,61.9,59.9,29.90,SE,139,1.0,4.0,93,0.00,,,0.00,Wunderground v.1.15,2013-04-11 10:37:00,
2013-04-11 06:38:00,62.0,60.0,29.90,SW,215,1.0,4.0,93,0.00,,,0.00,Wunderground v.1.15,2013-04-11 10:38:00,
2013-04-11 06:40:00,62.0,60.0,29.90,SSW,207,1.0,3.0,93,0.00,,,0.00,Wunderground v.1.15,2013-04-11 10:40:00,
2013-04-11 06:42:00,62.1,59.7,29.91,SSW,203,1.0,3.0,92,0.00,,,0.00,Wunderground v.1.15,2013-04-11 10:42:00,
2013-04-11 06:43:00,62.1,59.7,29.91,SSW,208,1.0,3.0,92,0.00,,,0.00,Wunderground v.1.15,2013-04-11 10:43:00,
2013-04-11 06:45:00,62.2,59.8,29.91,SSW,201,1.0,3.0,92,0.00,,,0.00,Wunderground v.1.15,2013-04-11 10:45:00,
2013-04-11 06:46:00,62.2,59.8,29.91,SW,217,1.0,3.0,92,0.00,,,0.00,Wunderground v.1.15,2013-04-11 10:46:00,
2013-04-11 06:47:00,62.2,59.8,29.91,SW,217,1.0,3.0,92,0.00,,,0.00,Wunderground v.1.15,2013-04-11 10:47:00,
2013-04-11 06:48:00,62.2,59.8,29.91,SSW,212,1.0,3.0,92,0.00,,,0.00,Wunderground v.1.15,2013-04-11 10:48:00,
2013-04-11 06:50:00,62.2,59.8,29.92,SSW,197,2.0,5.0,92,0.00,,,0.00,Wunderground v.1.15,2013-04-11 10:50:00,
2013-04-11 06:52:00,62.3,59.9,29.91,SSW,212,4.0,5.0,92,0.00,,,0.00,Wunderground v.1.15,2013-04-11 10:52:00,
2013-04-11 06:53:00,62.3,59.9,29.91,SSW,208,2.0,5.0,92,0.00,,,0.00,Wunderground v.1.15,2013-04-11 10:53:00,
2013-04-11 06:55:00,62.4,60.0,29.91,SSW,210,1.0,5.0,92,0.00,,,0.00,Wunderground v.1.15,2013-04-11 10:55:00,
2013-04-11 06:57:00,62.4,60.0,29.91,SE,128,1.0,5.0,92,0.00,,,0.00,Wunderground v.1.15,2013-04-11 10:57:00,
2013-04-11 06:58:00,62.4,60.0,29.91,SSW,203,2.0,5.0,92,0.00,,,0.00,Wunderground v.1.15,2013-04-11 10:58:00,
2013-04-11 07:01:00,62.5,60.1,29.91,SSW,212,2.0,2.0,92,0.00,,,0.00,Wunderground v.1.15,2013-04-11 11:01:00,
2013-04-11 07:02:00,62.5,60.1,29.92,SSW,197,1.0,3.0,92,0.00,,,0.00,Wunderground v.1.15,2013-04-11 11:02:00,
2013-04-11 07:03:00,62.5,60.1,29.92,SSW,200,1.0,3.0,92,0.00,,,0.00,Wunderground v.1.15,2013-04-11 11:03:00,
2013-04-11 07:06:00,62.6,60.2,29.92,SSW,207,1.0,4.0,92,0.00,,,0.00,Wunderground v.1.15,2013-04-11 11:06:00,
2013-04-11 07:08:00,62.6,60.2,29.92,SSW,210,1.0,4.0,92,0.00,,,0.00,Wunderground v.1.15,2013-04-11 11:08:00,
2013-04-11 07:11:00,62.7,60.3,29.92,SSW,207,1.0,4.0,92,0.00,,,0.00,Wunderground v.1.15,2013-04-11 11:11:00,
2013-04-11 07:13:00,62.8,60.4,29.92,SSW,208,1.0,4.0,92,0.00,,,0.00,Wunderground v.1.15,2013-04-11 11:13:00,
2013-04-11 07:16:00,62.8,60.4,29.92,SSW,195,1.0,4.0,92,0.00,,,0.00,Wunderground v.1.15,2013-04-11 11:16:00,
2013-04-11 07:18:00,62.9,60.5,29.92,SSW,212,1.0,4.0,92,0.00,,,0.00,Wunderground v.1.15,2013-04-11 11:18:00,
2013-04-11 07:21:00,63.0,60.6,29.93,SSW,210,1.0,3.0,92,0.00,,,0.00,Wunderground v.1.15,2013-04-11 11:21:00,
2013-04-11 07:23:00,63.0,60.6,29.93,SSW,204,2.0,3.0,92,0.00,,,0.00,Wunderground v.1.15,2013-04-11 11:23:00,
2013-04-11 07:26:00,63.1,60.7,29.93,SSW,210,2.0,3.0,92,0.00,,,0.00,Wunderground v.1.15,2013-04-11 11:26:00,
2013-04-11 07:28:00,63.1,60.7,29.93,SSW,203,1.0,4.0,92,0.00,,,0.00,Wunderground v.1.15,2013-04-11 11:28:00,
2013-04-11 07:29:00,63.2,60.8,29.93,SSW,202,1.0,4.0,92,0.00,,,0.00,Wunderground v.1.15,2013-04-11 11:29:00,
2013-04-11 07:31:00,63.2,60.8,29.93,SSW,200,1.0,2.0,92,0.00,,,0.00,Wunderground v.1.15,2013-04-11 11:31:00,
2013-04-11 07:33:00,63.3,60.9,29.93,East,89,1.0,2.0,92,0.00,,,0.00,Wunderground v.1.15,2013-04-11 11:33:00,
2013-04-11 07:34:00,63.3,60.9,29.93,SSW,210,2.0,3.0,92,0.00,,,0.00,Wunderground v.1.15,2013-04-11 11:34:00,
2013-04-11 07:36:00,63.3,60.6,29.93,SSW,197,1.0,3.0,91,0.00,,,0.00,Wunderground v.1.15,2013-04-11 11:36:00,
2013-04-11 07:38:00,63.4,60.7,29.93,SSW,207,6.0,6.0,91,0.00,,,0.00,Wunderground v.1.15,2013-04-11 11:38:00,
2013-04-11 07:39:00,63.4,60.7,29.93,SW,215,5.0,6.0,91,0.00,,,0.00,Wunderground v.1.15,2013-04-11 11:39:00,
2013-04-11 07:42:00,63.5,60.8,29.93,SSW,195,4.0,4.0,91,0.00,,,0.00,Wunderground v.1.15,2013-04-11 11:42:00,
2013-04-11 07:44:00,63.5,60.8,29.93,SSW,211,2.0,6.0,91,0.00,,,0.00,Wunderground v.1.15,2013-04-11 11:44:00,
2013-04-11 07:47:00,63.6,60.9,29.93,SSW,205,2.0,6.0,91,0.00,,,0.00,Wunderground v.1.15,2013-04-11 11:47:00,
2013-04-11 07:49:00,63.6,60.9,29.93,SSW,207,2.0,6.0,91,0.00,,,0.00,Wunderground v.1.15,2013-04-11 11:49:00,
2013-04-11 07:52:00,63.7,61.0,29.93,SSW,205,1.0,5.0,91,0.00,,,0.00,Wunderground v.1.15,2013-04-11 11:52:00,
2013-04-11 07:54:00,63.7,61.0,29.93,SSW,204,3.0,5.0,91,0.00,,,0.00,Wunderground v.1.15,2013-04-11 11:54:00,
2013-04-11 07:55:00,63.8,61.1,29.93,SSW,204,2.0,5.0,91,0.00,,,0.00,Wunderground v.1.15,2013-04-11 11:55:00,
2013-04-11 07:57:00,63.8,61.1,29.94,SSW,208,1.0,5.0,91,0.00,,,0.00,Wunderground v.1.15,2013-04-11 11:57:00,
2013-04-11 07:59:00,63.8,61.1,29.94,SW,217,3.0,5.0,91,0.00,,,0.00,Wunderground v.1.15,2013-04-11 11:59:00,
2013-04-11 08:00:00,63.9,61.2,29.94,South,190,1.0,2.0,91,0.00,,,0.00,Wunderground v.1.15,2013-04-11 12:00:00,
2013-04-11 08:02:00,63.9,61.2,29.94,SW,215,4.0,6.0,91,0.00,,,0.00,Wunderground v.1.15,2013-04-11 12:02:00,
2013-04-11 08:04:00,63.9,61.2,29.94,SSW,203,2.0,6.0,91,0.00,,,0.00,Wunderground v.1.15,2013-04-11 12:04:00,
2013-04-11 08:05:00,64.0,61.3,29.94,SW,215,3.0,6.0,91,0.00,,,0.00,Wunderground v.1.15,2013-04-11 12:05:00,
2013-04-11 08:08:00,64.0,61.3,29.94,SSW,203,1.0,6.0,91,0.00,,,0.00,Wunderground v.1.15,2013-04-11 12:08:00,
2013-04-11 08:09:00,64.1,61.4,29.94,SSW,203,4.0,6.0,91,0.00,,,0.00,Wunderground v.1.15,2013-04-11 12:09:00,
2013-04-11 08:10:00,64.1,61.4,29.94,SSW,208,2.0,2.0,91,0.00,,,0.00,Wunderground v.1.15,2013-04-11 12:10:00,
2013-04-11 08:13:00,64.2,61.5,29.94,SSW,213,1.0,3.0,91,0.00,,,0.00,Wunderground v.1.15,2013-04-11 12:13:00,
2013-04-11 08:14:00,64.3,61.6,29.94,SSW,197,3.0,4.0,91,0.00,,,0.00,Wunderground v.1.15,2013-04-11 12:14:00,
2013-04-11 08:15:00,64.3,61.3,29.94,SSW,212,1.0,4.0,90,0.00,,,0.00,Wunderground v.1.15,2013-04-11 12:15:00,
2013-04-11 08:18:00,64.4,61.4,29.94,SSW,208,2.0,4.0,90,0.00,,,0.00,Wunderground v.1.15,2013-04-11 12:18:00,
2013-04-11 08:19:00,64.5,61.5,29.93,SSW,207,1.0,4.0,90,0.00,,,0.00,Wunderground v.1.15,2013-04-11 12:19:00,
2013-04-11 08:20:00,64.5,61.5,29.94,SSW,204,0.0,2.0,90,0.00,,,0.00,Wunderground v.1.15,2013-04-11 12:20:00,
2013-04-11 08:23:00,64.7,61.7,29.94,SE,124,1.0,5.0,90,0.00,,,0.00,Wunderground v.1.15,2013-04-11 12:23:00,
2013-04-11 08:24:00,64.8,61.8,29.93,SSW,208,2.0,5.0,90,0.00,,,0.00,Wunderground v.1.15,2013-04-11 12:24:00,
2013-04-11 08:25:00,64.8,61.8,29.94,South,190,2.0,5.0,90,0.00,,,0.00,Wunderground v.1.15,2013-04-11 12:25:00,
2013-04-11 08:28:00,65.0,61.7,29.94,SSW,204,2.0,5.0,89,0.00,,,0.00,Wunderground v.1.15,2013-04-11 12:28:00,
2013-04-11 08:29:00,65.1,61.8,29.94,SSW,207,1.0,5.0,89,0.00,,,0.00,Wunderground v.1.15,2013-04-11 12:29:00,
2013-04-11 08:30:00,65.1,61.8,29.94,SW,222,5.0,5.0,89,0.00,,,0.00,Wunderground v.1.15,2013-04-11 12:30:00,
2013-04-11 08:33:00,65.2,61.9,29.94,SSW,200,0.0,5.0,89,0.00,,,0.00,Wunderground v.1.15,2013-04-11 12:33:00,
2013-04-11 08:34:00,65.4,62.1,29.94,SSW,213,1.0,5.0,89,0.00,,,0.00,Wunderground v.1.15,2013-04-11 12:34:00,
2013-04-11 08:35:00,65.4,62.1,29.94,SSE,150,2.0,5.0,89,0.00,,,0.00,Wunderground v.1.15,2013-04-11 12:35:00,
2013-04-11 08:38:00,65.6,61.9,29.94,SSE,148,1.0,5.0,88,0.00,,,0.00,Wunderground v.1.15,2013-04-11 12:38:00,
2013-04-11 08:40:00,65.7,62.0,29.94,SSW,195,2.0,2.0,88,0.00,,,0.00,Wunderground v.1.15,2013-04-11 12:40:00,
2013-04-11 08:44:00,65.9,62.2,29.94,South,184,2.0,5.0,88,0.00,,,0.00,Wunderground v.1.15,2013-04-11 12:44:00,
2013-04-11 08:45:00,65.9,62.2,29.94,SSE,155,4.0,5.0,88,0.00,,,0.00,Wunderground v.1.15,2013-04-11 12:45:00,
2013-04-11 08:46:00,65.9,62.2,29.94,South,177,2.0,5.0,88,0.00,,,0.00,Wunderground v.1.15,2013-04-11 12:46:00,
2013-04-11 08:49:00,66.1,62.1,29.94,SW,217,1.0,5.0,87,0.00,,,0.00,Wunderground v.1.15,2013-04-11 12:49:00,
2013-04-11 08:50:00,66.2,62.2,29.94,SSW,211,1.0,2.0,87,0.00,,,0.00,Wunderground v.1.15,2013-04-11 12:50:00,
2013-04-11 08:51:00,66.2,62.2,29.94,South,190,2.0,3.0,87,0.00,,,0.00,Wunderground v.1.15,2013-04-11 12:51:00,
2013-04-11 08:54:00,66.4,62.4,29.94,South,190,2.0,5.0,87,0.00,,,0.00,Wunderground v.1.15,2013-04-11 12:54:00,
2013-04-11 08:55:00,66.4,62.4,29.94,SSW,207,2.0,5.0,87,0.00,,,0.00,Wunderground v.1.15,2013-04-11 12:55:00,
2013-04-11 08:56:00,66.4,62.1,29.94,SSW,207,1.0,5.0,86,0.00,,,0.00,Wunderground v.1.15,2013-04-11 12:56:00,
2013-04-11 08:57:00,66.5,62.5,29.94,SW,217,2.0,5.0,87,0.00,,,0.00,Wunderground v.1.15,2013-04-11 12:57:00,
2013-04-11 08:59:00,66.6,62.3,29.94,South,179,2.0,5.0,86,0.00,,,0.00,Wunderground v.1.15,2013-04-11 12:59:00,
2013-04-11 09:00:00,66.6,62.3,29.94,SSW,211,2.0,2.0,86,0.00,,,0.00,Wunderground v.1.15,2013-04-11 13:00:00,
2013-04-11 09:01:00,66.6,62.3,29.93,South,191,3.0,3.0,86,0.00,,,0.00,Wunderground v.1.15,2013-04-11 13:01:00,
2013-04-11 09:02:00,66.7,62.4,29.93,SW,231,3.0,3.0,86,0.00,,,0.00,Wunderground v.1.15,2013-04-11 13:02:00,
2013-04-11 09:05:00,66.8,62.5,29.93,SW,214,1.0,3.0,86,0.00,,,0.00,Wunderground v.1.15,2013-04-11 13:05:00,
2013-04-11 09:07:00,67.0,62.7,29.93,SSW,204,1.0,4.0,86,0.00,,,0.00,Wunderground v.1.15,2013-04-11 13:07:00,
2013-04-11 09:10:00,67.2,62.5,29.93,SSW,193,2.0,2.0,85,0.00,,,0.00,Wunderground v.1.15,2013-04-11 13:10:00,
2013-04-11 09:12:00,67.4,62.7,29.93,SW,218,2.0,3.0,85,0.00,,,0.00,Wunderground v.1.15,2013-04-11 13:12:00,
2013-04-11 09:15:00,67.7,62.7,29.93,SSW,208,2.0,4.0,84,0.00,,,0.00,Wunderground v.1.15,2013-04-11 13:15:00,
2013-04-11 09:17:00,67.8,62.8,29.94,SSE,156,2.0,6.0,84,0.00,,,0.00,Wunderground v.1.15,2013-04-11 13:17:00,
2013-04-11 09:18:00,67.8,62.8,29.93,SW,231,2.0,6.0,84,0.00,,,0.00,Wunderground v.1.15,2013-04-11 13:18:00,
2013-04-11 09:20:00,67.9,62.9,29.93,SSW,210,1.0,2.0,84,0.00,,,0.00,Wunderground v.1.15,2013-04-11 13:20:00,
2013-04-11 09:22:00,67.9,62.9,29.93,SSW,212,5.0,5.0,84,0.00,,,0.00,Wunderground v.1.15,2013-04-11 13:22:00,
2013-04-11 09:23:00,67.9,62.9,29.93,SSW,194,2.0,5.0,84,0.00,,,0.00,Wunderground v.1.15,2013-04-11 13:23:00,
2013-04-11 09:25:00,67.9,62.5,29.93,South,188,1.0,5.0,83,0.00,,,0.00,Wunderground v.1.15,2013-04-11 13:25:00,
2013-04-11 09:28:00,68.0,63.0,29.93,SW,225,1.0,5.0,84,0.00,,,0.00,Wunderground v.1.15,2013-04-11 13:28:00,
2013-04-11 09:30:00,68.1,62.7,29.93,SSW,212,2.0,3.0,83,0.00,,,0.00,Wunderground v.1.15,2013-04-11 13:30:00,
2013-04-11 09:33:00,68.3,62.9,29.93,SSE,161,2.0,4.0,83,0.00,,,0.00,Wunderground v.1.15,2013-04-11 13:33:00,
2013-04-11 09:35:00,68.4,63.0,29.93,SSW,201,2.0,5.0,83,0.00,,,0.00,Wunderground v.1.15,2013-04-11 13:35:00,
2013-04-11 09:38:00,68.5,63.1,29.93,SSW,197,3.0,5.0,83,0.00,,,0.00,Wunderground v.1.15,2013-04-11 13:38:00,
2013-04-11 09:41:00,68.5,62.8,29.93,SSW,197,1.0,2.0,82,0.00,,,0.00,Wunderground v.1.15,2013-04-11 13:41:00,
2013-04-11 09:43:00,68.6,62.9,29.93,SW,221,1.0,3.0,82,0.00,,,0.00,Wunderground v.1.15,2013-04-11 13:43:00,
2013-04-11 09:44:00,68.7,63.0,29.93,SSW,212,1.0,3.0,82,0.00,,,0.00,Wunderground v.1.15,2013-04-11 13:44:00,
2013-04-11 09:46:00,68.7,63.0,29.93,SSW,197,2.0,3.0,82,0.00,,,0.00,Wunderground v.1.15,2013-04-11 13:46:00,
2013-04-11 09:48:00,68.8,63.1,29.93,South,191,2.0,4.0,82,0.00,,,0.00,Wunderground v.1.15,2013-04-11 13:48:00,
2013-04-11 09:49:00,68.8,63.1,29.93,SSW,205,2.0,4.0,82,0.00,,,0.00,Wunderground v.1.15,2013-04-11 13:49:00,
2013-04-11 09:51:00,68.9,63.2,29.93,SSW,200,1.0,3.0,82,0.00,,,0.00,Wunderground v.1.15,2013-04-11 13:51:00,
2013-04-11 09:54:00,68.9,63.2,29.93,SSE,160,0.0,3.0,82,0.00,,,0.00,Wunderground v.1.15,2013-04-11 13:54:00,
2013-04-11 09:56:00,69.0,63.3,29.93,SSW,207,2.0,3.0,82,0.00,,,0.00,Wunderground v.1.15,2013-04-11 13:56:00,
2013-04-11 09:59:00,69.1,63.0,29.93,SW,216,1.0,3.0,81,0.00,,,0.00,Wunderground v.1.15,2013-04-11 13:59:00,
2013-04-11 10:01:00,69.2,63.1,29.93,SSW,200,3.0,6.0,81,0.00,,,0.00,Wunderground v.1.15,2013-04-11 14:01:00,
2013-04-11 10:04:00,69.2,63.1,29.93,West,269,2.0,6.0,81,0.00,,,0.00,Wunderground v.1.15,2013-04-11 14:04:00,
2013-04-11 10:06:00,69.3,63.2,29.93,SW,226,1.0,6.0,81,0.00,,,0.00,Wunderground v.1.15,2013-04-11 14:06:00,
2013-04-11 10:09:00,69.4,63.3,29.93,SSW,200,2.0,6.0,81,0.00,,,0.00,Wunderground v.1.15,2013-04-11 14:09:00,
2013-04-11 10:10:00,69.4,63.3,29.93,SW,215,1.0,2.0,81,0.00,,,0.00,Wunderground v.1.15,2013-04-11 14:10:00,
2013-04-11 10:11:00,69.4,63.0,29.93,South,181,2.0,2.0,80,0.00,,,0.00,Wunderground v.1.15,2013-04-11 14:11:00,
2013-04-11 10:15:00,69.5,63.1,29.93,SSW,203,0.0,2.0,80,0.00,,,0.00,Wunderground v.1.15,2013-04-11 14:15:00,
2013-04-11 10:17:00,69.6,63.2,29.93,SSW,193,1.0,2.0,80,0.00,,,0.00,Wunderground v.1.15,2013-04-11 14:17:00,
2013-04-11 10:20:00,69.6,63.2,29.93,SW,231,2.0,2.0,80,0.00,,,0.00,Wunderground v.1.15,2013-04-11 14:20:00,
2013-04-11 10:22:00,69.7,62.9,29.93,SSW,194,2.0,5.0,79,0.00,,,0.00,Wunderground v.1.15,2013-04-11 14:22:00,
2013-04-11 10:25:00,69.7,62.9,29.93,SW,218,2.0,5.0,79,0.00,,,0.00,Wunderground v.1.15,2013-04-11 14:25:00,
2013-04-11 10:28:00,69.9,63.1,29.93,South,181,1.0,5.0,79,0.00,,,0.00,Wunderground v.1.15,2013-04-11 14:28:00,
2013-04-11 10:30:00,69.9,62.7,29.93,SSW,207,1.0,4.0,78,0.00,,,0.00,Wunderground v.1.15,2013-04-11 14:30:00,
2013-04-11 10:31:00,69.9,62.7,29.93,West,262,3.0,4.0,78,0.00,,,0.00,Wunderground v.1.15,2013-04-11 14:31:00,
2013-04-11 10:33:00,69.9,62.7,29.93,WSW,252,2.0,5.0,78,0.00,,,0.00,Wunderground v.1.15,2013-04-11 14:33:00,
2013-04-11 10:35:00,70.0,62.8,29.93,WSW,239,5.0,5.0,78,0.00,,,0.00,Wunderground v.1.15,2013-04-11 14:35:00,
2013-04-11 10:36:00,70.0,62.8,29.93,SSW,200,3.0,5.0,78,0.00,,,0.00,Wunderground v.1.15,2013-04-11 14:36:00,
2013-04-11 10:39:00,70.2,63.0,29.93,South,173,1.0,5.0,78,0.00,,,0.00,Wunderground v.1.15,2013-04-11 14:39:00,
2013-04-11 10:40:00,70.3,63.1,29.93,SSW,192,2.0,3.0,78,0.00,,,0.00,Wunderground v.1.15,2013-04-11 14:40:00,
2013-04-11 10:41:00,70.4,63.2,29.93,SSW,211,1.0,5.0,78,0.00,,,0.00,Wunderground v.1.15,2013-04-11 14:41:00,
2013-04-11 10:44:00,70.6,63.0,29.93,West,260,4.0,5.0,77,0.00,,,0.00,Wunderground v.1.15,2013-04-11 14:44:00,
2013-04-11 10:45:00,70.7,63.1,29.93,South,173,4.0,6.0,77,0.00,,,0.00,Wunderground v.1.15,2013-04-11 14:45:00,
2013-04-11 10:47:00,70.8,63.2,29.93,South,172,2.0,6.0,77,0.00,,,0.00,Wunderground v.1.15,2013-04-11 14:47:00,
2013-04-11 10:49:00,70.8,63.2,29.93,East,94,1.0,6.0,77,0.00,,,0.00,Wunderground v.1.15,2013-04-11 14:49:00,
2013-04-11 10:50:00,70.9,63.3,29.93,SE,129,2.0,4.0,77,0.00,,,0.00,Wunderground v.1.15,2013-04-11 14:50:00,
2013-04-11 10:52:00,70.9,63.0,29.93,SSW,212,1.0,4.0,76,0.00,,,0.00,Wunderground v.1.15,2013-04-11 14:52:00,
2013-04-11 10:54:00,71.0,63.1,29.93,SSW,197,3.0,4.0,76,0.00,,,0.00,Wunderground v.1.15,2013-04-11 14:54:00,
2013-04-11 10:55:00,71.0,63.1,29.93,SSW,205,2.0,4.0,76,0.00,,,0.00,Wunderground v.1.15,2013-04-11 14:55:00,
2013-04-11 10:57:00,71.0,63.1,29.93,SW,226,3.0,5.0,76,0.00,,,0.00,Wunderground v.1.15,2013-04-11 14:57:00,
2013-04-11 10:58:00,71.0,63.1,29.93,South,191,1.0,5.0,76,0.00,,,0.00,Wunderground v.1.15,2013-04-11 14:58:00,
2013-04-11 10:59:00,70.9,63.0,29.93,SSW,197,2.0,5.0,76,0.00,,,0.00,Wunderground v.1.15,2013-04-11 14:59:00,
2013-04-11 11:00:00,71.0,63.1,29.93,SSW,208,2.0,2.0,76,0.00,,,0.00,Wunderground v.1.15,2013-04-11 15:00:00,
2013-04-11 11:03:00,71.2,63.2,29.93,SSW,198,1.0,3.0,76,0.00,,,0.00,Wunderground v.1.15,2013-04-11 15:03:00,
2013-04-11 11:04:00,71.4,63.4,29.93,SW,214,3.0,4.0,76,0.00,,,0.00,Wunderground v.1.15,2013-04-11 15:04:00,
2013-04-11 11:06:00,71.6,63.6,29.93,South,172,4.0,4.0,76,0.00,,,0.00,Wunderground v.1.15,2013-04-11 15:06:00,
2013-04-11 11:08:00,71.8,63.4,29.93,SW,217,3.0,7.0,75,0.00,,,0.00,Wunderground v.1.15,2013-04-11 15:08:00,
2013-04-11 11:09:00,71.9,63.5,29.93,South,191,4.0,7.0,75,0.00,,,0.00,Wunderground v.1.15,2013-04-11 15:09:00,
2013-04-11 11:11:00,72.0,63.6,29.93,South,184,2.0,4.0,75,0.00,,,0.00,Wunderground v.1.15,2013-04-11 15:11:00,
2013-04-11 11:13:00,72.1,63.0,29.93,WSW,257,2.0,5.0,73,0.00,,,0.00,Wunderground v.1.15,2013-04-11 15:13:00,
2013-04-11 11:14:00,72.2,63.1,29.93,West,264,2.0,5.0,73,0.00,,,0.00,Wunderground v.1.15,2013-04-11 15:14:00,
2013-04-11 11:16:00,72.2,63.4,29.93,SE,146,2.0,6.0,74,0.00,,,0.00,Wunderground v.1.15,2013-04-11 15:16:00,
2013-04-11 11:18:00,72.2,63.4,29.93,SSW,204,0.0,6.0,74,0.00,,,0.00,Wunderground v.1.15,2013-04-11 15:18:00,
2013-04-11 11:19:00,72.2,63.4,29.93,South,172,2.0,6.0,74,0.00,,,0.00,Wunderground v.1.15,2013-04-11 15:19:00,
2013-04-11 11:20:00,72.3,63.5,29.93,SSW,194,4.0,4.0,74,0.00,,,0.00,Wunderground v.1.15,2013-04-11 15:20:00,
2013-04-11 11:22:00,72.4,63.3,29.93,SSW,211,3.0,5.0,73,0.00,,,0.00,Wunderground v.1.15,2013-04-11 15:22:00,
2013-04-11 11:23:00,72.5,63.7,29.93,SE,146,4.0,5.0,74,0.00,,,0.00,Wunderground v.1.15,2013-04-11 15:23:00,
2013-04-11 11:24:00,72.5,63.4,29.93,South,186,1.0,5.0,73,0.00,,,0.00,Wunderground v.1.15,2013-04-11 15:24:00,
2013-04-11 11:25:00,72.7,63.9,29.93,SW,217,2.0,5.0,74,0.00,,,0.00,Wunderground v.1.15,2013-04-11 15:25:00,
2013-04-11 11:27:00,72.8,63.6,29.93,SE,129,2.0,5.0,73,0.00,,,0.00,Wunderground v.1.15,2013-04-11 15:27:00,
2013-04-11 11:29:00,73.1,63.9,29.93,WSW,240,3.0,8.0,73,0.00,,,0.00,Wunderground v.1.15,2013-04-11 15:29:00,
2013-04-11 11:30:00,73.1,63.5,29.93,SSW,197,2.0,3.0,72,0.00,,,0.00,Wunderground v.1.15,2013-04-11 15:30:00,
2013-04-11 11:32:00,73.3,63.7,29.92,WSW,239,2.0,4.0,72,0.00,,,0.00,Wunderground v.1.15,2013-04-11 15:32:00,
2013-04-11 11:33:00,73.5,63.9,29.92,SSW,197,4.0,6.0,72,0.00,,,0.00,Wunderground v.1.15,2013-04-11 15:33:00,
2013-04-11 11:34:00,73.6,64.0,29.92,SSE,168,3.0,6.0,72,0.00,,,0.00,Wunderground v.1.15,2013-04-11 15:34:00,
2013-04-11 11:35:00,73.6,64.0,29.92,SW,216,1.0,6.0,72,0.00,,,0.00,Wunderground v.1.15,2013-04-11 15:35:00,
2013-04-11 11:37:00,73.8,64.6,29.92,SW,215,2.0,6.0,73,0.00,,,0.00,Wunderground v.1.15,2013-04-11 15:37:00,
2013-04-11 11:39:00,74.0,64.4,29.92,SW,228,1.0,6.0,72,0.00,,,0.00,Wunderground v.1.15,2013-04-11 15:39:00,
2013-04-11 11:40:00,74.1,64.1,29.92,SSW,201,3.0,4.0,71,0.00,,,0.00,Wunderground v.1.15,2013-04-11 15:40:00,
2013-04-11 11:42:00,74.1,64.1,29.92,SSW,200,4.0,6.0,71,0.00,,,0.00,Wunderground v.1.15,2013-04-11 15:42:00,
2013-04-11 11:44:00,74.1,64.1,29.92,SSW,197,3.0,6.0,71,0.00,,,0.00,Wunderground v.1.15,2013-04-11 15:44:00,
2013-04-11 11:45:00,74.2,64.6,29.92,SSE,165,3.0,6.0,72,0.00,,,0.00,Wunderground v.1.15,2013-04-11 15:45:00,
2013-04-11 11:47:00,74.3,64.3,29.92,SSW,205,2.0,6.0,71,0.00,,,0.00,Wunderground v.1.15,2013-04-11 15:47:00,
2013-04-11 11:50:00,74.5,64.1,29.92,SE,124,4.0,7.0,70,0.00,,,0.00,Wunderground v.1.15,2013-04-11 15:50:00,
2013-04-11 11:52:00,74.3,63.9,29.92,SSE,149,5.0,7.0,70,0.00,,,0.00,Wunderground v.1.15,2013-04-11 15:52:00,
2013-04-11 11:55:00,74.3,64.3,29.92,WSW,242,3.0,7.0,71,0.00,,,0.00,Wunderground v.1.15,2013-04-11 15:55:00,
2013-04-11 11:58:00,74.7,64.7,29.92,SW,225,3.0,7.0,71,0.00,,,0.00,Wunderground v.1.15,2013-04-11 15:58:00,
2013-04-11 12:00:00,74.9,64.0,29.92,South,184,2.0,3.0,69,0.00,,,0.00,Wunderground v.1.15,2013-04-11 16:00:00,
2013-04-11 12:04:00,75.2,63.9,29.91,WNW,292,1.0,8.0,68,0.00,,,0.00,Wunderground v.1.15,2013-04-11 16:04:00,
2013-04-11 12:05:00,75.3,64.0,29.91,SW,214,4.0,8.0,68,0.00,,,0.00,Wunderground v.1.15,2013-04-11 16:05:00,
2013-04-11 12:06:00,75.4,64.1,29.91,SSE,165,1.0,8.0,68,0.00,,,0.00,Wunderground v.1.15,2013-04-11 16:06:00,
2013-04-11 12:09:00,75.5,63.8,29.91,SW,225,3.0,8.0,67,0.00,,,0.00,Wunderground v.1.15,2013-04-11 16:09:00,
2013-04-11 12:10:00,75.5,64.2,29.91,SE,131,1.0,2.0,68,0.00,,,0.00,Wunderground v.1.15,2013-04-11 16:10:00,
2013-04-11 12:11:00,75.6,64.3,29.91,SSE,148,0.0,2.0,68,0.00,,,0.00,Wunderground v.1.15,2013-04-11 16:11:00,
2013-04-11 12:14:00,75.7,64.0,29.90,SW,214,2.0,3.0,67,0.00,,,0.00,Wunderground v.1.15,2013-04-11 16:14:00,
2013-04-11 12:15:00,75.8,64.1,29.90,SSW,211,1.0,4.0,67,0.00,,,0.00,Wunderground v.1.15,2013-04-11 16:15:00,
2013-04-11 12:16:00,75.8,63.6,29.90,SSW,197,1.0,4.0,66,0.00,,,0.00,Wunderground v.1.15,2013-04-11 16:16:00,
2013-04-11 12:17:00,75.9,63.7,29.90,SSW,197,0.0,4.0,66,0.00,,,0.00,Wunderground v.1.15,2013-04-11 16:17:00,
2013-04-11 12:19:00,76.1,63.9,29.90,SE,143,1.0,5.0,66,0.00,,,0.00,Wunderground v.1.15,2013-04-11 16:19:00,
2013-04-11 12:20:00,76.2,64.4,29.89,SW,229,2.0,2.0,67,0.00,,,0.00,Wunderground v.1.15,2013-04-11 16:20:00,
2013-04-11 12:21:00,76.2,64.0,29.89,SSW,192,3.0,3.0,66,0.00,,,0.00,Wunderground v.1.15,2013-04-11 16:21:00,
2013-04-11 12:22:00,76.3,64.1,29.89,SSW,203,4.0,4.0,66,0.00,,,0.00,Wunderground v.1.15,2013-04-11 16:22:00,
2013-04-11 12:24:00,76.3,63.7,29.89,SE,144,1.0,5.0,65,0.00,,,0.00,Wunderground v.1.15,2013-04-11 16:24:00,
2013-04-11 12:25:00,76.4,63.8,29.89,SSE,164,1.0,6.0,65,0.00,,,0.00,Wunderground v.1.15,2013-04-11 16:25:00,
2013-04-11 12:26:00,76.5,63.9,29.89,SSW,203,2.0,6.0,65,0.00,,,0.00,Wunderground v.1.15,2013-04-11 16:26:00,
2013-04-11 12:27:00,76.5,63.9,29.89,SSW,201,2.0,6.0,65,0.00,,,0.00,Wunderground v.1.15,2013-04-11 16:27:00,
2013-04-11 12:29:00,76.6,63.5,29.89,SSW,200,3.0,9.0,64,0.00,,,0.00,Wunderground v.1.15,2013-04-11 16:29:00,
2013-04-11 12:30:00,76.7,63.6,29.89,South,184,3.0,4.0,64,0.00,,,0.00,Wunderground v.1.15,2013-04-11 16:30:00,
2013-04-11 12:32:00,76.8,63.7,29.89,SSW,201,2.0,6.0,64,0.00,,,0.00,Wunderground v.1.15,2013-04-11 16:32:00,
2013-04-11 12:35:00,77.1,63.5,29.89,SW,215,2.0,6.0,63,0.00,,,0.00,Wunderground v.1.15,2013-04-11 16:35:00,
2013-04-11 12:37:00,77.0,63.9,29.89,South,187,2.0,6.0,64,0.00,,,0.00,Wunderground v.1.15,2013-04-11 16:37:00,
2013-04-11 12:40:00,77.3,63.7,29.89,SSW,207,1.0,2.0,63,0.00,,,0.00,Wunderground v.1.15,2013-04-11 16:40:00,
2013-04-11 12:42:00,77.4,64.3,29.88,NNW,336,3.0,3.0,64,0.00,,,0.00,Wunderground v.1.15,2013-04-11 16:42:00,
2013-04-11 12:43:00,77.5,64.4,29.88,West,278,1.0,3.0,64,0.00,,,0.00,Wunderground v.1.15,2013-04-11 16:43:00,
2013-04-11 12:45:00,77.7,64.1,29.88,South,186,2.0,3.0,63,0.00,,,0.00,Wunderground v.1.15,2013-04-11 16:45:00,
2013-04-11 12:46:00,77.8,63.7,29.88,SW,215,3.0,3.0,62,0.00,,,0.00,Wunderground v.1.15,2013-04-11 16:46:00,
2013-04-11 12:48:00,77.8,63.7,29.88,SSW,207,3.0,4.0,62,0.00,,,0.00,Wunderground v.1.15,2013-04-11 16:48:00,
2013-04-11 12:49:00,77.9,63.4,29.88,SSW,210,3.0,4.0,61,0.00,,,0.00,Wunderground v.1.15,2013-04-11 16:49:00,
2013-04-11 12:50:00,78.1,64.0,29.88,SSE,160,3.0,5.0,62,0.00,,,0.00,Wunderground v.1.15,2013-04-11 16:50:00,
2013-04-11 12:52:00,78.1,63.1,29.88,SSW,197,1.0,5.0,60,0.00,,,0.00,Wunderground v.1.15,2013-04-11 16:52:00,
2013-04-11 12:53:00,78.1,63.6,29.88,SW,217,4.0,5.0,61,0.00,,,0.00,Wunderground v.1.15,2013-04-11 16:53:00,
2013-04-11 12:54:00,78.1,63.6,29.88,SE,134,4.0,7.0,61,0.00,,,0.00,Wunderground v.1.15,2013-04-11 16:54:00,
2013-04-11 12:55:00,78.1,63.1,29.88,SSW,201,2.0,7.0,60,0.00,,,0.00,Wunderground v.1.15,2013-04-11 16:55:00,
2013-04-11 12:57:00,78.2,63.6,29.88,SW,214,1.0,7.0,61,0.00,,,0.00,Wunderground v.1.15,2013-04-11 16:57:00,
2013-04-11 12:58:00,78.4,64.3,29.88,SSW,211,2.0,7.0,62,0.00,,,0.00,Wunderground v.1.15,2013-04-11 16:58:00,
2013-04-11 12:59:00,78.7,63.2,29.88,SSW,195,5.0,7.0,59,0.00,,,0.00,Wunderground v.1.15,2013-04-11 16:59:00,
2013-04-11 13:01:00,79.0,63.4,29.88,SSW,197,5.0,6.0,59,0.00,,,0.00,Wunderground v.1.15,2013-04-11 17:01:00,
2013-04-11 13:02:00,79.0,63.0,29.88,SW,224,2.0,6.0,58,0.00,,,0.00,Wunderground v.1.15,2013-04-11 17:02:00,
2013-04-11 13:03:00,79.0,63.0,29.88,South,188,4.0,8.0,58,0.00,,,0.00,Wunderground v.1.15,2013-04-11 17:03:00,
2013-04-11 13:04:00,78.8,63.3,29.87,ESE,117,3.0,8.0,59,0.00,,,0.00,Wunderground v.1.15,2013-04-11 17:04:00,
2013-04-11 13:06:00,78.9,63.8,29.87,WSW,248,4.0,8.0,60,0.00,,,0.00,Wunderground v.1.15,2013-04-11 17:06:00,
2013-04-11 13:07:00,79.0,63.9,29.87,SSW,193,1.0,8.0,60,0.00,,,0.00,Wunderground v.1.15,2013-04-11 17:07:00,
2013-04-11 13:08:00,79.2,64.1,29.87,SSW,194,1.0,8.0,60,0.00,,,0.00,Wunderground v.1.15,2013-04-11 17:08:00,
2013-04-11 13:09:00,79.3,63.7,29.87,SSE,168,2.0,8.0,59,0.00,,,0.00,Wunderground v.1.15,2013-04-11 17:09:00,
2013-04-11 13:12:00,79.4,63.3,29.87,SSW,205,1.0,4.0,58,0.00,,,0.00,Wunderground v.1.15,2013-04-11 17:12:00,
2013-04-11 13:13:00,79.4,63.8,29.87,East,87,0.0,4.0,59,0.00,,,0.00,Wunderground v.1.15,2013-04-11 17:13:00,
2013-04-11 13:14:00,79.5,63.9,29.87,SSW,210,2.0,4.0,59,0.00,,,0.00,Wunderground v.1.15,2013-04-11 17:14:00,
2013-04-11 13:17:00,79.6,63.0,29.87,SW,218,2.0,4.0,57,0.00,,,0.00,Wunderground v.1.15,2013-04-11 17:17:00,
2013-04-11 13:19:00,79.8,63.7,29.87,South,184,3.0,5.0,58,0.00,,,0.00,Wunderground v.1.15,2013-04-11 17:19:00,
2013-04-11 13:20:00,79.9,63.3,29.87,SW,229,2.0,2.0,57,0.00,,,0.00,Wunderground v.1.15,2013-04-11 17:20:00,
2013-04-11 13:22:00,80.3,63.7,29.87,South,186,3.0,3.0,57,0.00,,,0.00,Wunderground v.1.15,2013-04-11 17:22:00,
2013-04-11 13:23:00,80.4,63.3,29.87,SSE,148,2.0,5.0,56,0.00,,,0.00,Wunderground v.1.15,2013-04-11 17:23:00,
2013-04-11 13:24:00,80.5,63.4,29.87,South,191,7.0,7.0,56,0.00,,,0.00,Wunderground v.1.15,2013-04-11 17:24:00,
2013-04-11 13:25:00,80.5,62.8,29.86,SSW,203,3.0,7.0,55,0.00,,,0.00,Wunderground v.1.15,2013-04-11 17:25:00,
2013-04-11 13:28:00,80.2,62.6,29.86,SSW,201,3.0,7.0,55,0.00,,,0.00,Wunderground v.1.15,2013-04-11 17:28:00,
2013-04-11 13:29:00,79.9,62.8,29.86,WSW,240,3.0,7.0,56,0.00,,,0.00,Wunderground v.1.15,2013-04-11 17:29:00,
2013-04-11 13:30:00,79.9,62.8,29.86,West,269,1.0,3.0,56,0.00,,,0.00,Wunderground v.1.15,2013-04-11 17:30:00,
2013-04-11 13:33:00,79.9,62.8,29.86,SW,214,3.0,4.0,56,0.00,,,0.00,Wunderground v.1.15,2013-04-11 17:33:00,
2013-04-11 13:35:00,79.8,62.7,29.86,SW,222,2.0,4.0,56,0.00,,,0.00,Wunderground v.1.15,2013-04-11 17:35:00,
2013-04-11 13:36:00,79.7,62.6,29.86,SSW,197,2.0,4.0,56,0.00,,,0.00,Wunderground v.1.15,2013-04-11 17:36:00,
2013-04-11 13:38:00,79.8,63.2,29.85,SW,218,6.0,6.0,57,0.00,,,0.00,Wunderground v.1.15,2013-04-11 17:38:00,
2013-04-11 13:40:00,80.0,62.9,29.85,SSW,200,3.0,7.0,56,0.00,,,0.00,Wunderground v.1.15,2013-04-11 17:40:00,
2013-04-11 13:42:00,80.1,63.0,29.85,SSW,194,2.0,7.0,56,0.00,,,0.00,Wunderground v.1.15,2013-04-11 17:42:00,
2013-04-11 13:43:00,80.3,63.2,29.85,SSW,211,1.0,7.0,56,0.00,,,0.00,Wunderground v.1.15,2013-04-11 17:43:00,
2013-04-11 13:45:00,80.6,62.4,29.85,SSW,211,2.0,7.0,54,0.00,,,0.00,Wunderground v.1.15,2013-04-11 17:45:00,
2013-04-11 13:47:00,80.8,63.1,29.85,SSW,197,2.0,7.0,55,0.00,,,0.00,Wunderground v.1.15,2013-04-11 17:47:00,
2013-04-11 13:48:00,81.0,63.3,29.85,WSW,243,0.0,7.0,55,0.00,,,0.00,Wunderground v.1.15,2013-04-11 17:48:00,
2013-04-11 13:50:00,81.3,62.5,29.85,SW,231,4.0,5.0,53,0.00,,,0.00,Wunderground v.1.15,2013-04-11 17:50:00,
2013-04-11 13:52:00,81.3,62.0,29.85,SSW,201,4.0,5.0,52,0.00,,,0.00,Wunderground v.1.15,2013-04-11 17:52:00,
2013-04-11 13:53:00,81.2,61.9,29.85,SW,214,2.0,5.0,52,0.00,,,0.00,Wunderground v.1.15,2013-04-11 17:53:00,
2013-04-11 13:55:00,81.0,61.2,29.85,SE,127,2.0,7.0,51,0.00,,,0.00,Wunderground v.1.15,2013-04-11 17:55:00,
2013-04-11 13:58:00,80.8,61.0,29.85,SW,233,6.0,7.0,51,0.00,,,0.00,Wunderground v.1.15,2013-04-11 17:58:00,
2013-04-11 13:59:00,80.7,60.9,29.85,West,261,5.0,7.0,51,0.00,,,0.00,Wunderground v.1.15,2013-04-11 17:59:00,
2013-04-11 14:00:00,80.7,62.0,29.85,South,190,2.0,4.0,53,0.00,,,0.00,Wunderground v.1.15,2013-04-11 18:00:00,
2013-04-11 14:03:00,80.8,62.1,29.85,NW,312,2.0,5.0,53,0.00,,,0.00,Wunderground v.1.15,2013-04-11 18:03:00,
2013-04-11 14:04:00,80.8,61.5,29.85,South,188,3.0,5.0,52,0.00,,,0.00,Wunderground v.1.15,2013-04-11 18:04:00,
2013-04-11 14:06:00,81.0,61.2,29.85,SSE,160,7.0,7.0,51,0.00,,,0.00,Wunderground v.1.15,2013-04-11 18:06:00,
2013-04-11 14:08:00,81.0,61.2,29.85,West,277,2.0,9.0,51,0.00,,,0.00,Wunderground v.1.15,2013-04-11 18:08:00,
2013-04-11 14:09:00,81.0,61.2,29.85,SW,215,2.0,9.0,51,0.00,,,0.00,Wunderground v.1.15,2013-04-11 18:09:00,
2013-04-11 14:11:00,81.2,61.4,29.85,SSW,204,5.0,5.0,51,0.00,,,0.00,Wunderground v.1.15,2013-04-11 18:11:00,
2013-04-11 14:13:00,81.3,61.4,29.85,SW,218,4.0,7.0,51,0.00,,,0.00,Wunderground v.1.15,2013-04-11 18:13:00,
2013-04-11 14:14:00,81.3,60.9,29.85,SSW,195,3.0,7.0,50,0.00,,,0.00,Wunderground v.1.15,2013-04-11 18:14:00,
2013-04-11 14:17:00,81.4,61.5,29.84,ENE,75,3.0,7.0,51,0.00,,,0.00,Wunderground v.1.15,2013-04-11 18:17:00,
2013-04-11 14:18:00,81.4,61.5,29.84,SW,218,1.0,7.0,51,0.00,,,0.00,Wunderground v.1.15,2013-04-11 18:18:00,
2013-04-11 14:19:00,81.4,61.0,29.84,SSW,201,0.0,7.0,50,0.00,,,0.00,Wunderground v.1.15,2013-04-11 18:19:00,
2013-04-11 14:22:00,81.6,61.2,29.84,SSW,212,3.0,3.0,50,0.00,,,0.00,Wunderground v.1.15,2013-04-11 18:22:00,
2013-04-11 14:23:00,81.7,61.2,29.84,SSW,211,1.0,3.0,50,0.00,,,0.00,Wunderground v.1.15,2013-04-11 18:23:00,
2013-04-11 14:24:00,81.8,61.9,29.84,SW,214,2.0,3.0,51,0.00,,,0.00,Wunderground v.1.15,2013-04-11 18:24:00,
2013-04-11 14:25:00,81.8,61.3,29.84,SSW,213,1.0,3.0,50,0.00,,,0.00,Wunderground v.1.15,2013-04-11 18:25:00,
2013-04-11 14:28:00,82.0,61.5,29.84,SSW,210,3.0,6.0,50,0.00,,,0.00,Wunderground v.1.15,2013-04-11 18:28:00,
2013-04-11 14:29:00,81.9,60.3,29.84,SSE,165,2.0,6.0,48,0.00,,,0.00,Wunderground v.1.15,2013-04-11 18:29:00,
2013-04-11 14:30:00,81.9,60.9,29.84,SSW,193,0.0,2.0,49,0.00,,,0.00,Wunderground v.1.15,2013-04-11 18:30:00,
2013-04-11 14:33:00,81.8,60.8,29.84,SW,219,2.0,7.0,49,0.00,,,0.00,Wunderground v.1.15,2013-04-11 18:33:00,
2013-04-11 14:34:00,81.9,62.0,29.84,SSW,200,2.0,7.0,51,0.00,,,0.00,Wunderground v.1.15,2013-04-11 18:34:00,
2013-04-11 14:35:00,82.0,62.1,29.84,SW,232,3.0,7.0,51,0.00,,,0.00,Wunderground v.1.15,2013-04-11 18:35:00,
2013-04-11 14:38:00,82.1,60.5,29.84,SSW,202,2.0,7.0,48,0.00,,,0.00,Wunderground v.1.15,2013-04-11 18:38:00,
2013-04-11 14:39:00,82.0,60.4,29.84,SSW,211,4.0,7.0,48,0.00,,,0.00,Wunderground v.1.15,2013-04-11 18:39:00,
2013-04-11 14:40:00,82.0,60.4,29.84,SSW,201,3.0,3.0,48,0.00,,,0.00,Wunderground v.1.15,2013-04-11 18:40:00,
2013-04-11 14:43:00,82.2,60.6,29.83,SSW,195,3.0,4.0,48,0.00,,,0.00,Wunderground v.1.15,2013-04-11 18:43:00,
2013-04-11 14:44:00,82.2,60.6,29.83,South,184,5.0,5.0,48,0.00,,,0.00,Wunderground v.1.15,2013-04-11 18:44:00,
2013-04-11 14:45:00,82.3,61.2,29.83,South,173,2.0,5.0,49,0.00,,,0.00,Wunderground v.1.15,2013-04-11 18:45:00,
2013-04-11 14:48:00,82.1,59.9,29.83,WSW,248,4.0,6.0,47,0.00,,,0.00,Wunderground v.1.15,2013-04-11 18:48:00,
2013-04-11 14:49:00,82.1,59.9,29.83,SSE,163,2.0,6.0,47,0.00,,,0.00,Wunderground v.1.15,2013-04-11 18:49:00,
2013-04-11 14:50:00,82.0,59.8,29.83,West,259,2.0,2.0,47,0.00,,,0.00,Wunderground v.1.15,2013-04-11 18:50:00,
2013-04-11 14:53:00,82.1,60.5,29.83,SSW,197,2.0,4.0,48,0.00,,,0.00,Wunderground v.1.15,2013-04-11 18:53:00,
2013-04-11 14:54:00,82.1,60.5,29.83,SSW,200,4.0,4.0,48,0.00,,,0.00,Wunderground v.1.15,2013-04-11 18:54:00,
2013-04-11 14:55:00,82.1,60.5,29.83,South,179,4.0,9.0,48,0.00,,,0.00,Wunderground v.1.15,2013-04-11 18:55:00,
2013-04-11 14:58:00,81.9,60.3,29.83,SSE,166,2.0,9.0,48,0.00,,,0.00,Wunderground v.1.15,2013-04-11 18:58:00,
2013-04-11 14:59:00,81.9,60.3,29.83,South,169,1.0,9.0,48,0.00,,,0.00,Wunderground v.1.15,2013-04-11 18:59:00,
2013-04-11 15:00:00,81.8,60.8,29.82,SSW,212,0.0,3.0,49,0.00,,,0.00,Wunderground v.1.15,2013-04-11 19:00:00,
2013-04-11 15:04:00,81.9,60.3,29.82,SSE,164,1.0,5.0,48,0.00,,,0.00,Wunderground v.1.15,2013-04-11 19:04:00,
2013-04-11 15:05:00,81.9,60.9,29.82,South,184,3.0,6.0,49,0.00,,,0.00,Wunderground v.1.15,2013-04-11 19:05:00,
2013-04-11 15:06:00,81.9,60.9,29.82,SSW,212,3.0,6.0,49,0.00,,,0.00,Wunderground v.1.15,2013-04-11 19:06:00,
2013-04-11 15:09:00,81.9,60.3,29.82,SSW,203,2.0,8.0,48,0.00,,,0.00,Wunderground v.1.15,2013-04-11 19:09:00,
2013-04-11 15:10:00,81.9,60.3,29.82,SW,226,1.0,4.0,48,0.00,,,0.00,Wunderground v.1.15,2013-04-11 19:10:00,
2013-04-11 15:11:00,81.9,60.3,29.82,SSW,195,2.0,4.0,48,0.00,,,0.00,Wunderground v.1.15,2013-04-11 19:11:00,
2013-04-11 15:14:00,82.0,60.4,29.82,SSW,211,2.0,4.0,48,0.00,,,0.00,Wunderground v.1.15,2013-04-11 19:14:00,
2013-04-11 15:15:00,82.0,60.4,29.82,South,186,1.0,4.0,48,0.00,,,0.00,Wunderground v.1.15,2013-04-11 19:15:00,
2013-04-11 15:16:00,81.9,60.3,29.81,South,187,1.0,4.0,48,0.00,,,0.00,Wunderground v.1.15,2013-04-11 19:16:00,
2013-04-11 15:18:00,81.9,60.9,29.81,South,177,3.0,4.0,49,0.00,,,0.00,Wunderground v.1.15,2013-04-11 19:18:00,
2013-04-11 15:19:00,81.8,60.8,29.81,SSW,205,0.0,4.0,49,0.00,,,0.00,Wunderground v.1.15,2013-04-11 19:19:00,
2013-04-11 15:20:00,81.8,60.8,29.81,SSW,202,2.0,2.0,49,0.00,,,0.00,Wunderground v.1.15,2013-04-11 19:20:00,
2013-04-11 15:21:00,81.7,60.7,29.81,SSW,207,4.0,4.0,49,0.00,,,0.00,Wunderground v.1.15,2013-04-11 19:21:00,
2013-04-11 15:23:00,81.6,60.6,29.81,SSW,197,4.0,6.0,49,0.00,,,0.00,Wunderground v.1.15,2013-04-11 19:23:00,
2013-04-11 15:24:00,81.3,60.3,29.81,SW,215,7.0,7.0,49,0.00,,,0.00,Wunderground v.1.15,2013-04-11 19:24:00,
2013-04-11 15:25:00,81.2,60.2,29.81,SSW,208,4.0,7.0,49,0.00,,,0.00,Wunderground v.1.15,2013-04-11 19:25:00,
2013-04-11 15:27:00,81.1,61.3,29.81,South,191,2.0,7.0,51,0.00,,,0.00,Wunderground v.1.15,2013-04-11 19:27:00,
2013-04-11 15:28:00,81.1,61.3,29.81,SE,146,1.0,7.0,51,0.00,,,0.00,Wunderground v.1.15,2013-04-11 19:28:00,
2013-04-11 15:29:00,81.2,60.8,29.81,SSW,204,4.0,7.0,50,0.00,,,0.00,Wunderground v.1.15,2013-04-11 19:29:00,
2013-04-11 15:30:00,81.3,60.9,29.81,SSW,212,7.0,8.0,50,0.00,,,0.00,Wunderground v.1.15,2013-04-11 19:30:00,
2013-04-11 15:32:00,81.3,60.3,29.81,ESE,123,3.0,8.0,49,0.00,,,0.00,Wunderground v.1.15,2013-04-11 19:32:00,
2013-04-11 15:33:00,81.4,61.0,29.80,SSW,198,3.0,8.0,50,0.00,,,0.00,Wunderground v.1.15,2013-04-11 19:33:00,
2013-04-11 15:34:00,81.5,60.5,29.80,SSW,193,3.0,8.0,49,0.00,,,0.00,Wunderground v.1.15,2013-04-11 19:34:00,
2013-04-11 15:35:00,81.5,60.5,29.80,SSW,204,5.0,10.0,49,0.00,,,0.00,Wunderground v.1.15,2013-04-11 19:35:00,
2013-04-11 15:37:00,81.6,61.2,29.81,SSE,152,5.0,10.0,50,0.00,,,0.00,Wunderground v.1.15,2013-04-11 19:37:00,
2013-04-11 15:38:00,81.7,61.2,29.80,SSW,208,3.0,10.0,50,0.00,,,0.00,Wunderground v.1.15,2013-04-11 19:38:00,
2013-04-11 15:40:00,81.9,60.9,29.80,SSW,211,3.0,4.0,49,0.00,,,0.00,Wunderground v.1.15,2013-04-11 19:40:00,
2013-04-11 15:42:00,81.9,60.9,29.80,SSE,167,1.0,5.0,49,0.00,,,0.00,Wunderground v.1.15,2013-04-11 19:42:00,
2013-04-11 15:43:00,81.9,60.9,29.80,SSW,207,6.0,7.0,49,0.00,,,0.00,Wunderground v.1.15,2013-04-11 19:43:00,
2013-04-11 15:45:00,81.9,60.9,29.80,South,191,3.0,7.0,49,0.00,,,0.00,Wunderground v.1.15,2013-04-11 19:45:00,
2013-04-11 15:48:00,81.9,60.9,29.80,SSW,196,2.0,7.0,49,0.00,,,0.00,Wunderground v.1.15,2013-04-11 19:48:00,
2013-04-11 15:50:00,81.9,61.4,29.80,WSW,256,1.0,3.0,50,0.00,,,0.00,Wunderground v.1.15,2013-04-11 19:50:00,
2013-04-11 15:52:00,81.9,61.4,29.80,NNE,29,1.0,4.0,50,0.00,,,0.00,Wunderground v.1.15,2013-04-11 19:52:00,
2013-04-11 15:53:00,81.9,61.4,29.80,South,170,2.0,6.0,50,0.00,,,0.00,Wunderground v.1.15,2013-04-11 19:53:00,
2013-04-11 15:54:00,81.8,61.3,29.80,SSW,203,2.0,6.0,50,0.00,,,0.00,Wunderground v.1.15,2013-04-11 19:54:00,
2013-04-11 15:55:00,81.7,61.2,29.80,SSE,167,3.0,6.0,50,0.00,,,0.00,Wunderground v.1.15,2013-04-11 19:55:00,
2013-04-11 15:57:00,81.6,61.2,29.80,SW,214,3.0,8.0,50,0.00,,,0.00,Wunderground v.1.15,2013-04-11 19:57:00,
2013-04-11 15:58:00,81.4,61.5,29.80,SSW,207,1.0,8.0,51,0.00,,,0.00,Wunderground v.1.15,2013-04-11 19:58:00,
2013-04-11 15:59:00,81.4,61.5,29.80,SSW,205,0.0,8.0,51,0.00,,,0.00,Wunderground v.1.15,2013-04-11 19:59:00,
2013-04-11 16:00:00,81.4,62.1,29.80,WNW,297,2.0,3.0,52,0.00,,,0.00,Wunderground v.1.15,2013-04-11 20:00:00,
2013-04-11 16:02:00,81.4,61.5,29.80,SSW,193,2.0,4.0,51,0.00,,,0.00,Wunderground v.1.15,2013-04-11 20:02:00,
2013-04-11 16:04:00,81.4,61.5,29.79,SSW,205,2.0,4.0,51,0.00,,,0.00,Wunderground v.1.15,2013-04-11 20:04:00,
2013-04-11 16:05:00,81.5,61.6,29.80,SSW,211,3.0,4.0,51,0.00,,,0.00,Wunderground v.1.15,2013-04-11 20:05:00,
2013-04-11 16:07:00,81.7,61.2,29.79,SSW,204,6.0,6.0,50,0.00,,,0.00,Wunderground v.1.15,2013-04-11 20:07:00,
2013-04-11 16:09:00,81.6,61.2,29.79,SSW,205,2.0,9.0,50,0.00,,,0.00,Wunderground v.1.15,2013-04-11 20:09:00,
2013-04-11 16:11:00,81.4,61.0,29.79,SW,226,4.0,6.0,50,0.00,,,0.00,Wunderground v.1.15,2013-04-11 20:11:00,
2013-04-11 16:12:00,81.2,61.4,29.79,SW,232,1.0,6.0,51,0.00,,,0.00,Wunderground v.1.15,2013-04-11 20:12:00,
2013-04-11 16:14:00,81.2,61.9,29.79,WSW,246,1.0,6.0,52,0.00,,,0.00,Wunderground v.1.15,2013-04-11 20:14:00,
2013-04-11 16:17:00,81.4,61.5,29.79,South,187,3.0,6.0,51,0.00,,,0.00,Wunderground v.1.15,2013-04-11 20:17:00,
2013-04-11 16:18:00,81.5,61.6,29.79,SSW,212,2.0,6.0,51,0.00,,,0.00,Wunderground v.1.15,2013-04-11 20:18:00,
2013-04-11 16:19:00,81.7,61.8,29.79,East,81,1.0,6.0,51,0.00,,,0.00,Wunderground v.1.15,2013-04-11 20:19:00,
2013-04-11 16:22:00,81.9,61.4,29.78,NNE,33,1.0,4.0,50,0.00,,,0.00,Wunderground v.1.15,2013-04-11 20:22:00,
2013-04-11 16:23:00,81.9,61.4,29.78,SSW,208,5.0,5.0,50,0.00,,,0.00,Wunderground v.1.15,2013-04-11 20:23:00,
2013-04-11 16:24:00,81.9,60.9,29.78,West,274,2.0,6.0,49,0.00,,,0.00,Wunderground v.1.15,2013-04-11 20:24:00,
2013-04-11 16:25:00,81.9,60.9,29.78,SSE,155,2.0,6.0,49,0.00,,,0.00,Wunderground v.1.15,2013-04-11 20:25:00,
2013-04-11 16:28:00,82.0,61.0,29.78,ENE,60,3.0,6.0,49,0.00,,,0.00,Wunderground v.1.15,2013-04-11 20:28:00,
2013-04-11 16:29:00,82.1,61.0,29.78,SSW,197,3.0,6.0,49,0.00,,,0.00,Wunderground v.1.15,2013-04-11 20:29:00,
2013-04-11 16:30:00,82.1,61.6,29.78,SW,217,2.0,6.0,50,0.00,,,0.00,Wunderground v.1.15,2013-04-11 20:30:00,
2013-04-11 16:33:00,82.3,60.6,29.78,SSW,205,6.0,7.0,48,0.00,,,0.00,Wunderground v.1.15,2013-04-11 20:33:00,
2013-04-11 16:34:00,82.2,60.6,29.78,SW,214,2.0,7.0,48,0.00,,,0.00,Wunderground v.1.15,2013-04-11 20:34:00,
2013-04-11 16:35:00,82.2,60.6,29.78,SSW,205,0.0,7.0,48,0.00,,,0.00,Wunderground v.1.15,2013-04-11 20:35:00,
2013-04-11 16:39:00,82.4,61.3,29.77,ESE,105,1.0,7.0,49,0.00,,,0.00,Wunderground v.1.15,2013-04-11 20:39:00,
2013-04-11 16:40:00,82.5,60.8,29.77,SSW,205,2.0,2.0,48,0.00,,,0.00,Wunderground v.1.15,2013-04-11 20:40:00,
2013-04-11 16:44:00,82.7,60.4,29.78,ESE,107,1.0,5.0,47,0.00,,,0.00,Wunderground v.1.15,2013-04-11 20:44:00,
2013-04-11 16:45:00,82.7,59.8,29.77,WNW,284,3.0,5.0,46,0.00,,,0.00,Wunderground v.1.15,2013-04-11 20:45:00,
2013-04-11 16:49:00,82.5,60.2,29.77,South,187,1.0,5.0,47,0.00,,,0.00,Wunderground v.1.15,2013-04-11 20:49:00,
2013-04-11 16:50:00,82.5,60.2,29.76,SSW,198,2.0,2.0,47,0.00,,,0.00,Wunderground v.1.15,2013-04-11 20:50:00,
2013-04-11 16:54:00,82.4,60.1,29.76,SSW,194,1.0,3.0,47,0.00,,,0.00,Wunderground v.1.15,2013-04-11 20:54:00,
2013-04-11 16:55:00,82.4,60.1,29.77,South,186,1.0,3.0,47,0.00,,,0.00,Wunderground v.1.15,2013-04-11 20:55:00,
2013-04-11 16:59:00,82.2,60.0,29.76,SSW,205,2.0,5.0,47,0.00,,,0.00,Wunderground v.1.15,2013-04-11 20:59:00,
2013-04-11 17:00:00,82.1,59.9,29.76,South,177,2.0,2.0,47,0.00,,,0.00,Wunderground v.1.15,2013-04-11 21:00:00,
2013-04-11 17:04:00,82.0,60.4,29.76,SW,219,1.0,3.0,48,0.00,,,0.00,Wunderground v.1.15,2013-04-11 21:04:00,
2013-04-11 17:06:00,82.0,60.4,29.76,SSE,160,0.0,3.0,48,0.00,,,0.00,Wunderground v.1.15,2013-04-11 21:06:00,
2013-04-11 17:09:00,82.2,60.6,29.76,South,191,1.0,3.0,48,0.00,,,0.00,Wunderground v.1.15,2013-04-11 21:09:00,
2013-04-11 17:11:00,82.2,60.6,29.76,SSW,205,2.0,4.0,48,0.00,,,0.00,Wunderground v.1.15,2013-04-11 21:11:00,
2013-04-11 17:14:00,82.1,60.5,29.76,SSW,197,3.0,4.0,48,0.00,,,0.00,Wunderground v.1.15,2013-04-11 21:14:00,
2013-04-11 17:16:00,82.2,60.6,29.76,SSW,194,1.0,4.0,48,0.00,,,0.00,Wunderground v.1.15,2013-04-11 21:16:00,
2013-04-11 17:19:00,82.1,60.5,29.76,ESE,114,1.0,5.0,48,0.00,,,0.00,Wunderground v.1.15,2013-04-11 21:19:00,
2013-04-11 17:20:00,82.0,60.4,29.76,SSW,197,0.0,2.0,48,0.00,,,0.00,Wunderground v.1.15,2013-04-11 21:20:00,
2013-04-11 17:21:00,82.0,61.0,29.75,SSW,212,1.0,2.0,49,0.00,,,0.00,Wunderground v.1.15,2013-04-11 21:21:00,
2013-04-11 17:25:00,82.2,60.6,29.75,SSE,159,1.0,3.0,48,0.00,,,0.00,Wunderground v.1.15,2013-04-11 21:25:00,
2013-04-11 17:27:00,82.3,61.2,29.75,SSE,159,0.0,3.0,49,0.00,,,0.00,Wunderground v.1.15,2013-04-11 21:27:00,
2013-04-11 17:30:00,82.6,60.9,29.75,South,172,2.0,4.0,48,0.00,,,0.00,Wunderground v.1.15,2013-04-11 21:30:00,
2013-04-11 17:32:00,82.6,60.9,29.75,SE,134,0.0,4.0,48,0.00,,,0.00,Wunderground v.1.15,2013-04-11 21:32:00,
2013-04-11 17:33:00,82.6,60.9,29.75,SSW,210,3.0,4.0,48,0.00,,,0.00,Wunderground v.1.15,2013-04-11 21:33:00,
2013-04-11 17:35:00,82.5,60.8,29.75,SSW,195,1.0,5.0,48,0.00,,,0.00,Wunderground v.1.15,2013-04-11 21:35:00,
2013-04-11 17:37:00,82.4,60.7,29.75,South,188,2.0,5.0,48,0.00,,,0.00,Wunderground v.1.15,2013-04-11 21:37:00,
2013-04-11 17:38:00,82.3,60.6,29.75,South,191,1.0,5.0,48,0.00,,,0.00,Wunderground v.1.15,2013-04-11 21:38:00,
2013-04-11 17:40:00,82.1,60.5,29.75,South,184,4.0,6.0,48,0.00,,,0.00,Wunderground v.1.15,2013-04-11 21:40:00,
2013-04-11 17:41:00,82.1,60.5,29.75,SE,125,2.0,6.0,48,0.00,,,0.00,Wunderground v.1.15,2013-04-11 21:41:00,
2013-04-11 17:43:00,82.0,61.0,29.75,SE,143,1.0,6.0,49,0.00,,,0.00,Wunderground v.1.15,2013-04-11 21:43:00,
2013-04-11 17:46:00,81.8,60.8,29.75,SW,222,3.0,9.0,49,0.00,,,0.00,Wunderground v.1.15,2013-04-11 21:46:00,
2013-04-11 17:47:00,81.7,60.7,29.75,SSW,207,2.0,9.0,49,0.00,,,0.00,Wunderground v.1.15,2013-04-11 21:47:00,
2013-04-11 17:48:00,81.7,60.7,29.75,South,187,1.0,9.0,49,0.00,,,0.00,Wunderground v.1.15,2013-04-11 21:48:00,
2013-04-11 17:52:00,81.6,60.6,29.75,South,173,4.0,4.0,49,0.00,,,0.00,Wunderground v.1.15,2013-04-11 21:52:00,
2013-04-11 17:53:00,81.5,60.5,29.75,SSW,193,1.0,7.0,49,0.00,,,0.00,Wunderground v.1.15,2013-04-11 21:53:00,
2013-04-11 17:54:00,81.5,60.5,29.75,SSW,198,3.0,7.0,49,0.00,,,0.00,Wunderground v.1.15,2013-04-11 21:54:00,
2013-04-11 17:57:00,81.4,61.0,29.75,East,101,1.0,7.0,50,0.00,,,0.00,Wunderground v.1.15,2013-04-11 21:57:00,
2013-04-11 17:58:00,81.4,61.0,29.75,SSW,204,1.0,7.0,50,0.00,,,0.00,Wunderground v.1.15,2013-04-11 21:58:00,
2013-04-11 17:59:00,81.3,60.9,29.75,SW,221,7.0,7.0,50,0.00,,,0.00,Wunderground v.1.15,2013-04-11 21:59:00,
2013-04-11 18:02:00,81.2,60.8,29.75,SSW,208,3.0,5.0,50,0.00,,,0.00,Wunderground v.1.15,2013-04-11 22:02:00,
2013-04-11 18:03:00,81.2,60.8,29.75,SW,218,1.0,5.0,50,0.00,,,0.00,Wunderground v.1.15,2013-04-11 22:03:00,
2013-04-11 18:04:00,81.1,61.3,29.75,SW,214,3.0,5.0,51,0.00,,,0.00,Wunderground v.1.15,2013-04-11 22:04:00,
2013-04-11 18:07:00,81.0,61.2,29.75,SSW,203,0.0,5.0,51,0.00,,,0.00,Wunderground v.1.15,2013-04-11 22:07:00,
2013-04-11 18:08:00,81.0,61.2,29.75,SSW,212,2.0,5.0,51,0.00,,,0.00,Wunderground v.1.15,2013-04-11 22:08:00,
2013-04-11 18:09:00,81.0,61.2,29.75,SSW,205,1.0,5.0,51,0.00,,,0.00,Wunderground v.1.15,2013-04-11 22:09:00,
2013-04-11 18:13:00,81.0,61.2,29.75,SSW,208,0.0,3.0,51,0.00,,,0.00,Wunderground v.1.15,2013-04-11 22:13:00,
2013-04-11 18:14:00,81.0,61.2,29.75,SSW,207,1.0,3.0,51,0.00,,,0.00,Wunderground v.1.15,2013-04-11 22:14:00,
2013-04-11 18:18:00,81.0,61.2,29.75,SSW,200,1.0,3.0,51,0.00,,,0.00,Wunderground v.1.15,2013-04-11 22:18:00,
2013-04-11 18:19:00,81.0,61.2,29.75,ESE,121,4.0,4.0,51,0.00,,,0.00,Wunderground v.1.15,2013-04-11 22:19:00,
2013-04-11 18:23:00,81.0,61.2,29.75,SSE,159,2.0,4.0,51,0.00,,,0.00,Wunderground v.1.15,2013-04-11 22:23:00,
2013-04-11 18:24:00,81.0,61.2,29.74,SW,231,1.0,4.0,51,0.00,,,0.00,Wunderground v.1.15,2013-04-11 22:24:00,
2013-04-11 18:28:00,81.1,61.3,29.75,SE,138,1.0,4.0,51,0.00,,,0.00,Wunderground v.1.15,2013-04-11 22:28:00,
2013-04-11 18:29:00,81.2,61.4,29.74,SSW,210,2.0,4.0,51,0.00,,,0.00,Wunderground v.1.15,2013-04-11 22:29:00,
2013-04-11 18:33:00,81.3,61.4,29.74,SSW,207,0.0,2.0,51,0.00,,,0.00,Wunderground v.1.15,2013-04-11 22:33:00,
2013-04-11 18:34:00,81.3,61.4,29.74,South,188,1.0,2.0,51,0.00,,,0.00,Wunderground v.1.15,2013-04-11 22:34:00,
2013-04-11 18:38:00,81.1,61.8,29.74,South,181,0.0,5.0,52,0.00,,,0.00,Wunderground v.1.15,2013-04-11 22:38:00,
2013-04-11 18:39:00,81.1,61.8,29.75,South,181,1.0,5.0,52,0.00,,,0.00,Wunderground v.1.15,2013-04-11 22:39:00,
2013-04-11 18:40:00,81.1,61.3,29.74,South,186,1.0,1.0,51,0.00,,,0.00,Wunderground v.1.15,2013-04-11 22:40:00,
2013-04-11 18:43:00,81.0,61.7,29.74,SE,146,1.0,4.0,52,0.00,,,0.00,Wunderground v.1.15,2013-04-11 22:43:00,
2013-04-11 18:44:00,81.0,61.7,29.74,SSW,205,2.0,4.0,52,0.00,,,0.00,Wunderground v.1.15,2013-04-11 22:44:00,
2013-04-11 18:45:00,80.9,61.1,29.74,SSW,204,1.0,4.0,51,0.00,,,0.00,Wunderground v.1.15,2013-04-11 22:45:00,
2013-04-11 18:48:00,80.8,61.5,29.75,SSE,158,1.0,4.0,52,0.00,,,0.00,Wunderground v.1.15,2013-04-11 22:48:00,
2013-04-11 18:49:00,80.8,61.5,29.75,SSE,158,1.0,4.0,52,0.00,,,0.00,Wunderground v.1.15,2013-04-11 22:49:00,
2013-04-11 18:50:00,80.7,61.4,29.75,SSE,160,2.0,2.0,52,0.00,,,0.00,Wunderground v.1.15,2013-04-11 22:50:00,
2013-04-11 18:53:00,80.7,61.4,29.75,South,175,2.0,2.0,52,0.00,,,0.00,Wunderground v.1.15,2013-04-11 22:53:00,
2013-04-11 18:54:00,80.6,61.3,29.75,SSW,198,0.0,2.0,52,0.00,,,0.00,Wunderground v.1.15,2013-04-11 22:54:00,
2013-04-11 18:55:00,80.6,61.3,29.75,SW,219,1.0,2.0,52,0.00,,,0.00,Wunderground v.1.15,2013-04-11 22:55:00,
2013-04-11 18:59:00,80.5,61.3,29.74,South,187,1.0,5.0,52,0.00,,,0.00,Wunderground v.1.15,2013-04-11 22:59:00,
2013-04-11 19:00:00,80.5,61.8,29.74,SSW,207,1.0,1.0,53,0.00,,,0.00,Wunderground v.1.15,2013-04-11 23:00:00,
2013-04-11 19:04:00,80.4,61.2,29.74,SSW,207,2.0,6.0,52,0.00,,,0.00,Wunderground v.1.15,2013-04-11 23:04:00,
2013-04-11 19:05:00,80.4,61.2,29.74,SSW,193,1.0,6.0,52,0.00,,,0.00,Wunderground v.1.15,2013-04-11 23:05:00,
2013-04-11 19:09:00,80.3,61.6,29.74,SSW,193,1.0,6.0,53,0.00,,,0.00,Wunderground v.1.15,2013-04-11 23:09:00,
2013-04-11 19:10:00,80.3,61.6,29.74,South,174,2.0,2.0,53,0.00,,,0.00,Wunderground v.1.15,2013-04-11 23:10:00,
2013-04-11 19:14:00,80.1,61.4,29.74,SSW,193,0.0,2.0,53,0.00,,,0.00,Wunderground v.1.15,2013-04-11 23:14:00,
2013-04-11 19:15:00,80.1,61.4,29.74,SSW,193,1.0,2.0,53,0.00,,,0.00,Wunderground v.1.15,2013-04-11 23:15:00,
2013-04-11 19:19:00,79.9,61.2,29.74,SSW,210,1.0,2.0,53,0.00,,,0.00,Wunderground v.1.15,2013-04-11 23:19:00,
2013-04-11 19:20:00,79.8,61.1,29.74,SSW,210,0.0,1.0,53,0.00,,,0.00,Wunderground v.1.15,2013-04-11 23:20:00,
2013-04-11 19:21:00,79.8,61.7,29.74,SSW,204,1.0,1.0,54,0.00,,,0.00,Wunderground v.1.15,2013-04-11 23:21:00,
2013-04-11 19:24:00,79.6,61.5,29.74,SSE,152,1.0,2.0,54,0.00,,,0.00,Wunderground v.1.15,2013-04-11 23:24:00,
2013-04-11 19:25:00,79.6,61.5,29.74,SSE,150,1.0,2.0,54,0.00,,,0.00,Wunderground v.1.15,2013-04-11 23:25:00,
2013-04-11 19:26:00,79.6,61.5,29.74,SSE,152,0.0,2.0,54,0.00,,,0.00,Wunderground v.1.15,2013-04-11 23:26:00,
2013-04-11 19:29:00,79.3,61.2,29.74,SE,131,0.0,2.0,54,0.00,,,0.00,Wunderground v.1.15,2013-04-11 23:29:00,
2013-04-11 19:30:00,79.3,61.2,29.74,SE,131,1.0,1.0,54,0.00,,,0.00,Wunderground v.1.15,2013-04-11 23:30:00,
2013-04-11 19:31:00,79.3,61.2,29.74,SSW,194,1.0,1.0,54,0.00,,,0.00,Wunderground v.1.15,2013-04-11 23:31:00,
2013-04-11 19:35:00,79.0,60.9,29.75,South,183,1.0,2.0,54,0.00,,,0.00,Wunderground v.1.15,2013-04-11 23:35:00,
2013-04-11 19:36:00,79.0,61.5,29.75,South,183,0.0,2.0,55,0.00,,,0.00,Wunderground v.1.15,2013-04-11 23:36:00,
2013-04-11 19:40:00,78.8,61.3,29.75,SSW,207,2.0,4.0,55,0.00,,,0.00,Wunderground v.1.15,2013-04-11 23:40:00,
2013-04-11 19:41:00,78.8,61.3,29.75,SSW,203,1.0,4.0,55,0.00,,,0.00,Wunderground v.1.15,2013-04-11 23:41:00,
2013-04-11 19:45:00,78.6,61.6,29.75,South,187,0.0,4.0,56,0.00,,,0.00,Wunderground v.1.15,2013-04-11 23:45:00,
2013-04-11 19:47:00,78.6,61.6,29.75,SSW,193,0.0,4.0,56,0.00,,,0.00,Wunderground v.1.15,2013-04-11 23:47:00,
2013-04-11 19:50:00,78.4,61.4,29.74,SSW,203,1.0,1.0,56,0.00,,,0.00,Wunderground v.1.15,2013-04-11 23:50:00,
2013-04-11 19:51:00,78.4,61.4,29.74,SSW,203,1.0,1.0,56,0.00,,,0.00,Wunderground v.1.15,2013-04-11 23:51:00,
2013-04-11 19:52:00,78.4,61.4,29.74,South,183,1.0,1.0,56,0.00,,,0.00,Wunderground v.1.15,2013-04-11 23:52:00,
2013-04-11 19:55:00,78.2,61.2,29.74,SSE,156,0.0,1.0,56,0.00,,,0.00,Wunderground v.1.15,2013-04-11 23:55:00,
2013-04-11 19:56:00,78.2,61.7,29.74,SSE,156,0.0,1.0,57,0.00,,,0.00,Wunderground v.1.15,2013-04-11 23:56:00,
2013-04-11 19:58:00,78.1,61.6,29.74,SSE,159,0.0,1.0,57,0.00,,,0.00,Wunderground v.1.15,2013-04-11 23:58:00,
2013-04-11 20:00:00,77.9,61.4,29.74,SSE,159,0.0,0.0,57,0.00,,,0.00,Wunderground v.1.15,2013-04-12 00:00:00,
2013-04-11 20:02:00,77.9,61.4,29.74,SSE,159,0.0,0.0,57,0.00,,,0.00,Wunderground v.1.15,2013-04-12 00:02:00,
2013-04-11 20:03:00,77.8,61.3,29.73,SSE,160,0.0,0.0,57,0.00,,,0.00,Wunderground v.1.15,2013-04-12 00:03:00,
2013-04-11 20:06:00,77.7,61.7,29.74,SSE,159,0.0,0.0,58,0.00,,,0.00,Wunderground v.1.15,2013-04-12 00:06:00,
2013-04-11 20:07:00,77.7,61.7,29.74,SSE,159,0.0,0.0,58,0.00,,,0.00,Wunderground v.1.15,2013-04-12 00:07:00,
2013-04-11 20:08:00,77.6,61.7,29.74,SSE,159,0.0,0.0,58,0.00,,,0.00,Wunderground v.1.15,2013-04-12 00:08:00,
2013-04-11 20:11:00,77.4,61.5,29.74,SSE,159,0.0,0.0,58,0.00,,,0.00,Wunderground v.1.15,2013-04-12 00:11:00,
2013-04-11 20:12:00,77.3,61.4,29.74,SSE,159,0.0,0.0,58,0.00,,,0.00,Wunderground v.1.15,2013-04-12 00:12:00,
2013-04-11 20:13:00,77.2,61.3,29.74,SSE,159,0.0,0.0,58,0.00,,,0.00,Wunderground v.1.15,2013-04-12 00:13:00,
2013-04-11 20:16:00,77.0,61.6,29.74,SSE,159,0.0,0.0,59,0.00,,,0.00,Wunderground v.1.15,2013-04-12 00:16:00,
2013-04-11 20:17:00,77.0,61.6,29.74,SSE,159,0.0,0.0,59,0.00,,,0.00,Wunderground v.1.15,2013-04-12 00:17:00,
2013-04-11 20:18:00,76.9,61.5,29.74,SSE,159,0.0,0.0,59,0.00,,,0.00,Wunderground v.1.15,2013-04-12 00:18:00,
2013-04-11 20:22:00,76.7,61.3,29.74,SSE,159,0.0,0.0,59,0.00,,,0.00,Wunderground v.1.15,2013-04-12 00:22:00,
2013-04-11 20:23:00,76.6,61.2,29.74,SSE,159,1.0,1.0,59,0.00,,,0.00,Wunderground v.1.15,2013-04-12 00:23:00,
2013-04-11 20:27:00,76.4,61.5,29.74,SSE,159,1.0,1.0,60,0.00,,,0.00,Wunderground v.1.15,2013-04-12 00:27:00,
2013-04-11 20:28:00,76.4,61.5,29.74,SSE,159,0.0,1.0,60,0.00,,,0.00,Wunderground v.1.15,2013-04-12 00:28:00,
2013-04-11 20:32:00,76.1,61.7,29.73,SSE,159,0.0,0.0,61,0.00,,,0.00,Wunderground v.1.15,2013-04-12 00:32:00,
2013-04-11 20:33:00,76.1,61.7,29.73,SSE,159,0.0,0.0,61,0.00,,,0.00,Wunderground v.1.15,2013-04-12 00:33:00,
2013-04-11 20:34:00,76.1,61.7,29.73,SSE,159,0.0,0.0,61,0.00,,,0.00,Wunderground v.1.15,2013-04-12 00:34:00,
2013-04-11 20:37:00,75.9,61.5,29.73,SSE,159,0.0,1.0,61,0.00,,,0.00,Wunderground v.1.15,2013-04-12 00:37:00,
2013-04-11 20:38:00,75.9,61.5,29.73,SSE,159,0.0,1.0,61,0.00,,,0.00,Wunderground v.1.15,2013-04-12 00:38:00,
2013-04-11 20:39:00,75.8,61.4,29.73,SSE,159,0.0,1.0,61,0.00,,,0.00,Wunderground v.1.15,2013-04-12 00:39:00,
2013-04-11 20:42:00,75.7,61.3,29.73,SSE,159,0.0,1.0,61,0.00,,,0.00,Wunderground v.1.15,2013-04-12 00:42:00,
2013-04-11 20:43:00,75.7,61.8,29.74,SSE,159,0.0,1.0,62,0.00,,,0.00,Wunderground v.1.15,2013-04-12 00:43:00,
2013-04-11 20:44:00,75.7,61.8,29.74,SSE,159,0.0,1.0,62,0.00,,,0.00,Wunderground v.1.15,2013-04-12 00:44:00,
2013-04-11 20:48:00,75.5,61.6,29.74,SSE,159,0.0,1.0,62,0.00,,,0.00,Wunderground v.1.15,2013-04-12 00:48:00,
2013-04-11 20:49:00,75.5,61.6,29.74,SSE,159,1.0,1.0,62,0.00,,,0.00,Wunderground v.1.15,2013-04-12 00:49:00,
2013-04-11 20:53:00,75.4,61.5,29.74,SE,142,1.0,1.0,62,0.00,,,0.00,Wunderground v.1.15,2013-04-12 00:53:00,
2013-04-11 20:54:00,75.4,61.5,29.74,South,187,2.0,2.0,62,0.00,,,0.00,Wunderground v.1.15,2013-04-12 00:54:00,
2013-04-11 20:58:00,75.5,62.9,29.74,SSE,152,6.0,6.0,65,0.00,,,0.00,Wunderground v.1.15,2013-04-12 00:58:00,
2013-04-11 20:59:00,75.6,63.0,29.74,ESE,120,4.0,6.0,65,0.00,,,0.00,Wunderground v.1.15,2013-04-12 00:59:00,
2013-04-11 21:03:00,75.7,63.5,29.74,SSE,153,2.0,6.0,66,0.00,,,0.00,Wunderground v.1.15,2013-04-12 01:03:00,
2013-04-11 21:04:00,75.7,63.5,29.74,SE,127,4.0,6.0,66,0.00,,,0.00,Wunderground v.1.15,2013-04-12 01:04:00,
2013-04-11 21:08:00,75.6,63.9,29.74,South,190,0.0,6.0,67,0.00,,,0.00,Wunderground v.1.15,2013-04-12 01:08:00,
2013-04-11 21:09:00,75.6,63.9,29.74,SSW,197,1.0,6.0,67,0.00,,,0.00,Wunderground v.1.15,2013-04-12 01:09:00,
2013-04-11 21:13:00,75.5,64.2,29.74,SSE,152,1.0,5.0,68,0.00,,,0.00,Wunderground v.1.15,2013-04-12 01:13:00,
2013-04-11 21:14:00,75.5,64.2,29.75,SSE,162,2.0,5.0,68,0.00,,,0.00,Wunderground v.1.15,2013-04-12 01:14:00,
2013-04-11 21:19:00,75.4,64.5,29.74,ESE,114,3.0,7.0,69,0.00,,,0.00,Wunderground v.1.15,2013-04-12 01:19:00,
2013-04-11 21:20:00,75.4,64.9,29.75,SSW,205,2.0,7.0,70,0.00,,,0.00,Wunderground v.1.15,2013-04-12 01:20:00,
2013-04-11 21:24:00,75.4,64.9,29.75,South,191,1.0,4.0,70,0.00,,,0.00,Wunderground v.1.15,2013-04-12 01:24:00,
2013-04-11 21:25:00,75.4,64.9,29.75,South,180,3.0,4.0,70,0.00,,,0.00,Wunderground v.1.15,2013-04-12 01:25:00,
2013-04-11 21:29:00,75.4,65.3,29.75,SE,125,1.0,7.0,71,0.00,,,0.00,Wunderground v.1.15,2013-04-12 01:29:00,
2013-04-11 21:30:00,75.3,65.6,29.75,SW,214,1.0,2.0,72,0.00,,,0.00,Wunderground v.1.15,2013-04-12 01:30:00,
2013-04-11 21:34:00,75.2,65.6,29.75,SE,131,3.0,3.0,72,0.00,,,0.00,Wunderground v.1.15,2013-04-12 01:34:00,
2013-04-11 21:35:00,75.2,65.9,29.75,SSW,200,4.0,4.0,73,0.00,,,0.00,Wunderground v.1.15,2013-04-12 01:35:00,
2013-04-11 21:39:00,75.2,65.9,29.75,SE,139,5.0,12.0,73,0.00,,,0.00,Wunderground v.1.15,2013-04-12 01:39:00,
2013-04-11 21:40:00,75.2,65.9,29.75,SSW,201,2.0,3.0,73,0.00,,,0.00,Wunderground v.1.15,2013-04-12 01:40:00,
2013-04-11 21:44:00,75.1,66.2,29.75,SSE,155,3.0,4.0,74,0.00,,,0.00,Wunderground v.1.15,2013-04-12 01:44:00,
2013-04-11 21:45:00,75.1,66.2,29.75,South,179,3.0,4.0,74,0.00,,,0.00,Wunderground v.1.15,2013-04-12 01:45:00,
2013-04-11 21:46:00,75.1,66.2,29.75,SW,214,5.0,5.0,74,0.00,,,0.00,Wunderground v.1.15,2013-04-12 01:46:00,
2013-04-11 21:49:00,75.0,66.1,29.75,SSE,160,1.0,5.0,74,0.00,,,0.00,Wunderground v.1.15,2013-04-12 01:49:00,
2013-04-11 21:50:00,75.0,66.1,29.75,SSW,200,3.0,7.0,74,0.00,,,0.00,Wunderground v.1.15,2013-04-12 01:50:00,
2013-04-11 21:51:00,75.0,66.5,29.75,SE,133,2.0,7.0,75,0.00,,,0.00,Wunderground v.1.15,2013-04-12 01:51:00,
2013-04-11 21:54:00,74.9,66.4,29.75,SE,124,1.0,7.0,75,0.00,,,0.00,Wunderground v.1.15,2013-04-12 01:54:00,
2013-04-11 21:55:00,74.8,66.3,29.76,SSE,163,4.0,7.0,75,0.00,,,0.00,Wunderground v.1.15,2013-04-12 01:55:00,
2013-04-11 21:57:00,74.8,66.3,29.76,SSW,200,5.0,7.0,75,0.00,,,0.00,Wunderground v.1.15,2013-04-12 01:57:00,
2013-04-11 22:00:00,74.7,66.6,29.76,SE,124,3.0,3.0,76,0.00,,,0.00,Wunderground v.1.15,2013-04-12 02:00:00,
2013-04-11 22:02:00,74.7,66.6,29.76,SSW,212,3.0,5.0,76,0.00,,,0.00,Wunderground v.1.15,2013-04-12 02:02:00,
2013-04-11 22:05:00,74.6,66.9,29.76,South,172,4.0,10.0,77,0.00,,,0.00,Wunderground v.1.15,2013-04-12 02:05:00,
2013-04-11 22:07:00,74.5,66.8,29.76,ESE,110,2.0,10.0,77,0.00,,,0.00,Wunderground v.1.15,2013-04-12 02:07:00,
2013-04-11 22:08:00,74.5,66.8,29.76,ENE,66,1.0,10.0,77,0.00,,,0.00,Wunderground v.1.15,2013-04-12 02:08:00,
2013-04-11 22:10:00,74.4,66.7,29.76,SSW,193,1.0,3.0,77,0.00,,,0.00,Wunderground v.1.15,2013-04-12 02:10:00,
2013-04-11 22:13:00,74.3,67.0,29.76,SSE,150,2.0,5.0,78,0.00,,,0.00,Wunderground v.1.15,2013-04-12 02:13:00,
2013-04-11 22:15:00,74.2,66.9,29.76,SE,146,2.0,5.0,78,0.00,,,0.00,Wunderground v.1.15,2013-04-12 02:15:00,
2013-04-11 22:18:00,74.2,66.9,29.76,ESE,115,4.0,5.0,78,0.00,,,0.00,Wunderground v.1.15,2013-04-12 02:18:00,
2013-04-11 22:21:00,74.1,67.2,29.75,South,177,3.0,7.0,79,0.00,,,0.00,Wunderground v.1.15,2013-04-12 02:21:00,
2013-04-11 22:23:00,74.0,67.1,29.75,SSW,203,1.0,7.0,79,0.00,,,0.00,Wunderground v.1.15,2013-04-12 02:23:00,
2013-04-11 22:24:00,73.9,67.0,29.75,South,181,2.0,7.0,79,0.00,,,0.00,Wunderground v.1.15,2013-04-12 02:24:00,
2013-04-11 22:26:00,73.9,67.3,29.75,SE,124,3.0,7.0,80,0.00,,,0.00,Wunderground v.1.15,2013-04-12 02:26:00,
2013-04-11 22:28:00,73.7,67.1,29.75,SSE,165,4.0,7.0,80,0.00,,,0.00,Wunderground v.1.15,2013-04-12 02:28:00,
2013-04-11 22:29:00,73.7,67.1,29.75,SSE,151,3.0,7.0,80,0.00,,,0.00,Wunderground v.1.15,2013-04-12 02:29:00,
2013-04-11 22:31:00,73.6,67.0,29.75,SSW,195,1.0,2.0,80,0.00,,,0.00,Wunderground v.1.15,2013-04-12 02:31:00,
2013-04-11 22:33:00,73.5,67.3,29.75,ESE,105,2.0,4.0,81,0.00,,,0.00,Wunderground v.1.15,2013-04-12 02:33:00,
2013-04-11 22:34:00,73.5,67.3,29.75,SSE,154,3.0,6.0,81,0.00,,,0.00,Wunderground v.1.15,2013-04-12 02:34:00,
2013-04-11 22:37:00,73.3,67.1,29.75,SSE,153,1.0,6.0,81,0.00,,,0.00,Wunderground v.1.15,2013-04-12 02:37:00,
2013-04-11 22:38:00,73.3,67.5,29.75,SW,225,4.0,7.0,82,0.00,,,0.00,Wunderground v.1.15,2013-04-12 02:38:00,
2013-04-11 22:39:00,73.2,67.4,29.75,SSE,167,2.0,7.0,82,0.00,,,0.00,Wunderground v.1.15,2013-04-12 02:39:00,
2013-04-11 22:42:00,73.0,67.2,29.75,SE,146,1.0,5.0,82,0.00,,,0.00,Wunderground v.1.15,2013-04-12 02:42:00,
2013-04-11 22:43:00,73.0,67.5,29.75,South,169,3.0,5.0,83,0.00,,,0.00,Wunderground v.1.15,2013-04-12 02:43:00,
2013-04-11 22:44:00,72.9,67.4,29.75,SSW,197,2.0,5.0,83,0.00,,,0.00,Wunderground v.1.15,2013-04-12 02:44:00,
2013-04-11 22:48:00,72.8,67.3,29.75,SW,231,5.0,5.0,83,0.00,,,0.00,Wunderground v.1.15,2013-04-12 02:48:00,
2013-04-11 22:49:00,72.7,67.6,29.75,SSW,197,4.0,6.0,84,0.00,,,0.00,Wunderground v.1.15,2013-04-12 02:49:00,
2013-04-11 22:53:00,72.5,67.4,29.75,SE,130,0.0,5.0,84,0.00,,,0.00,Wunderground v.1.15,2013-04-12 02:53:00,
2013-04-11 22:54:00,72.5,67.4,29.75,ESE,122,2.0,5.0,84,0.00,,,0.00,Wunderground v.1.15,2013-04-12 02:54:00,
2013-04-11 22:58:00,72.3,67.2,29.75,SSW,203,2.0,6.0,84,0.00,,,0.00,Wunderground v.1.15,2013-04-12 02:58:00,
2013-04-11 22:59:00,72.3,67.5,29.75,South,186,3.0,6.0,85,0.00,,,0.00,Wunderground v.1.15,2013-04-12 02:59:00,
2013-04-11 23:03:00,72.1,67.3,29.75,SSW,197,2.0,5.0,85,0.00,,,0.00,Wunderground v.1.15,2013-04-12 03:03:00,
2013-04-11 23:04:00,72.1,67.3,29.75,SSE,163,1.0,5.0,85,0.00,,,0.00,Wunderground v.1.15,2013-04-12 03:04:00,
2013-04-11 23:05:00,72.1,67.3,29.75,South,170,1.0,5.0,85,0.00,,,0.00,Wunderground v.1.15,2013-04-12 03:05:00,
2013-04-11 23:08:00,72.0,67.2,29.75,SSE,152,2.0,6.0,85,0.00,,,0.00,Wunderground v.1.15,2013-04-12 03:08:00,
2013-04-11 23:09:00,72.0,67.2,29.75,SSW,210,2.0,6.0,85,0.00,,,0.00,Wunderground v.1.15,2013-04-12 03:09:00,
2013-04-11 23:10:00,72.0,67.2,29.75,South,176,1.0,3.0,85,0.00,,,0.00,Wunderground v.1.15,2013-04-12 03:10:00,
2013-04-11 23:13:00,71.9,67.5,29.76,SSW,201,3.0,3.0,86,0.00,,,0.00,Wunderground v.1.15,2013-04-12 03:13:00,
2013-04-11 23:14:00,71.9,67.5,29.75,SE,139,3.0,3.0,86,0.00,,,0.00,Wunderground v.1.15,2013-04-12 03:14:00,
2013-04-11 23:15:00,71.8,67.4,29.75,SE,132,3.0,4.0,86,0.00,,,0.00,Wunderground v.1.15,2013-04-12 03:15:00,
2013-04-11 23:19:00,71.8,67.4,29.75,SSW,207,2.0,10.0,86,0.00,,,0.00,Wunderground v.1.15,2013-04-12 03:19:00,
2013-04-11 23:20:00,71.8,67.4,29.75,SSE,150,2.0,4.0,86,0.00,,,0.00,Wunderground v.1.15,2013-04-12 03:20:00,
2013-04-11 23:24:00,71.7,67.3,29.76,South,179,2.0,4.0,86,0.00,,,0.00,Wunderground v.1.15,2013-04-12 03:24:00,
2013-04-11 23:25:00,71.7,67.3,29.76,SE,126,3.0,4.0,86,0.00,,,0.00,Wunderground v.1.15,2013-04-12 03:25:00,
2013-04-11 23:29:00,71.6,67.2,29.76,SSW,203,1.0,8.0,86,0.00,,,0.00,Wunderground v.1.15,2013-04-12 03:29:00,
2013-04-11 23:30:00,71.6,67.2,29.76,SSE,162,1.0,3.0,86,0.00,,,0.00,Wunderground v.1.15,2013-04-12 03:30:00,
2013-04-11 23:34:00,71.6,67.2,29.76,SSW,193,1.0,4.0,86,0.00,,,0.00,Wunderground v.1.15,2013-04-12 03:34:00,
2013-04-11 23:35:00,71.5,67.1,29.76,SE,142,3.0,5.0,86,0.00,,,0.00,Wunderground v.1.15,2013-04-12 03:35:00,
2013-04-11 23:36:00,71.5,67.1,29.76,SSE,167,2.0,5.0,86,0.00,,,0.00,Wunderground v.1.15,2013-04-12 03:36:00,
2013-04-11 23:37:00,71.5,67.1,29.76,ESE,110,3.0,5.0,86,0.00,,,0.00,Wunderground v.1.15,2013-04-12 03:37:00,
2013-04-11 23:39:00,71.5,67.1,29.75,South,179,2.0,5.0,86,0.00,,,0.00,Wunderground v.1.15,2013-04-12 03:39:00,
2013-04-11 23:40:00,71.5,67.1,29.76,East,98,2.0,2.0,86,0.00,,,0.00,Wunderground v.1.15,2013-04-12 03:40:00,
2013-04-11 23:41:00,71.5,67.1,29.76,East,94,1.0,2.0,86,0.00,,,0.00,Wunderground v.1.15,2013-04-12 03:41:00,
2013-04-11 23:42:00,71.4,67.0,29.76,South,190,2.0,5.0,86,0.00,,,0.00,Wunderground v.1.15,2013-04-12 03:42:00,
2013-04-11 23:45:00,71.4,67.0,29.76,East,94,2.0,5.0,86,0.00,,,0.00,Wunderground v.1.15,2013-04-12 03:45:00,
2013-04-11 23:47:00,71.4,67.0,29.76,SSW,212,4.0,6.0,86,0.00,,,0.00,Wunderground v.1.15,2013-04-12 03:47:00,
2013-04-11 23:50:00,71.3,66.9,29.76,SSE,160,5.0,5.0,86,0.00,,,0.00,Wunderground v.1.15,2013-04-12 03:50:00,
2013-04-11 23:52:00,71.3,66.9,29.75,ESE,117,4.0,8.0,86,0.00,,,0.00,Wunderground v.1.15,2013-04-12 03:52:00,
2013-04-11 23:53:00,71.2,66.8,29.75,SE,140,4.0,8.0,86,0.00,,,0.00,Wunderground v.1.15,2013-04-12 03:53:00,
2013-04-11 23:55:00,71.2,66.8,29.75,South,169,1.0,8.0,86,0.00,,,0.00,Wunderground v.1.15,2013-04-12 03:55:00,
2013-04-11 23:57:00,71.2,66.8,29.75,ESE,107,2.0,8.0,86,0.00,,,0.00,Wunderground v.1.15,2013-04-12 03:57:00,
2013-04-11 23:58:00,71.2,66.8,29.75,SW,226,2.0,8.0,86,0.00,,,0.00,Wunderground v.1.15,2013-04-12 03:58:00,